Wetterdaten: Montag, 27.03.2023
Datum Zeit Temp. Aussen Temp. o. S. Temp +5cm Feuchte Auss Luftdruck Regen Sonnenschein Regendauer Solar Windben Empfang
27.03.2023 00:00 5,0 C 3,9 C 1,1 C 77 % 1011,4 hPa 0,0 l/m 0 min 0 min 0 W/m 19,3 km/h (3 Bft) 97,87 %
27.03.2023 00:02 5,0 C 3,9 C 1,1 C 77 % 1011,4 hPa 0,0 l/m 0 min 0 min 0 W/m 6,4 km/h (2 Bft) 14,29 %
27.03.2023 00:04 4,9 C 3,9 C 1,1 C 77 % 1011,5 hPa 0,0 l/m 0 min 0 min 0 W/m 25,7 km/h (4 Bft) 80,95 %
27.03.2023 00:08 4,8 C 3,9 C 1,1 C 77 % 1011,5 hPa 0,0 l/m 0 min 0 min 0 W/m 19,3 km/h (3 Bft) 255,36 %
27.03.2023 00:10 4,7 C 3,9 C 1,1 C 77 % 1011,6 hPa 0,0 l/m 0 min 0 min 0 W/m 22,5 km/h (4 Bft) 100,00 %
27.03.2023 00:12 4,7 C 3,9 C 1,1 C 77 % 1011,6 hPa 0,0 l/m 0 min 0 min 0 W/m 19,3 km/h (3 Bft) 95,74 %
27.03.2023 00:14 4,7 C 3,9 C 1,1 C 78 % 1011,6 hPa 0,0 l/m 0 min 0 min 0 W/m 19,3 km/h (3 Bft) 100,00 %
27.03.2023 00:16 4,6 C 3,9 C 1,1 C 78 % 1011,8 hPa 0,0 l/m 0 min 0 min 0 W/m 22,5 km/h (4 Bft) 97,87 %
27.03.2023 00:18 4,6 C 3,3 C 1,1 C 78 % 1011,8 hPa 0,0 l/m 0 min 0 min 0 W/m 12,9 km/h (3 Bft) 97,83 %
27.03.2023 00:20 4,6 C 3,3 C 1,1 C 78 % 1011,8 hPa 0,0 l/m 0 min 0 min 0 W/m 16,1 km/h (3 Bft) 100,00 %
27.03.2023 00:22 4,5 C 3,3 C 1,1 C 78 % 1011,9 hPa 0,0 l/m 0 min 0 min 0 W/m 19,3 km/h (3 Bft) 96,55 %
27.03.2023 00:24 4,4 C 3,3 C 1,1 C 79 % 1011,9 hPa 0,0 l/m 0 min 0 min 0 W/m 12,9 km/h (3 Bft) 100,00 %
27.03.2023 00:26 4,4 C 3,3 C 1,1 C 79 % 1012,0 hPa 0,0 l/m 0 min 0 min 0 W/m 9,7 km/h (2 Bft) 100,00 %
27.03.2023 00:28 4,3 C 3,3 C 0,0 C 79 % 1012,0 hPa 0,0 l/m 0 min 0 min 0 W/m 16,1 km/h (3 Bft) 93,62 %
27.03.2023 00:30 4,3 C 3,3 C 0,0 C 79 % 1012,1 hPa 0,0 l/m 0 min 0 min 0 W/m 22,5 km/h (4 Bft) 100,00 %
27.03.2023 00:32 4,3 C 3,3 C 0,0 C 80 % 1012,1 hPa 0,0 l/m 0 min 0 min 0 W/m 12,9 km/h (3 Bft) 97,92 %
27.03.2023 00:34 4,2 C 2,8 C 0,0 C 80 % 1012,2 hPa 0,0 l/m 0 min 0 min 0 W/m 12,9 km/h (3 Bft) 100,00 %
27.03.2023 00:36 4,2 C 2,8 C 0,0 C 80 % 1012,2 hPa 0,0 l/m 0 min 0 min 0 W/m 16,1 km/h (3 Bft) 95,65 %
27.03.2023 00:38 4,2 C 3,3 C 0,0 C 80 % 1012,2 hPa 0,0 l/m 0 min 0 min 0 W/m 12,9 km/h (3 Bft) 97,87 %
27.03.2023 00:40 4,1 C 2,8 C 0,0 C 80 % 1012,2 hPa 0,0 l/m 0 min 0 min 0 W/m 9,7 km/h (2 Bft) 100,00 %
27.03.2023 00:42 4,1 C 2,8 C 0,0 C 80 % 1012,3 hPa 0,0 l/m 0 min 0 min 0 W/m 16,1 km/h (3 Bft) 100,00 %
27.03.2023 00:44 4,1 C 2,8 C 0,0 C 81 % 1012,3 hPa 0,0 l/m 0 min 0 min 0 W/m 9,7 km/h (2 Bft) 97,87 %
27.03.2023 00:46 4,0 C 2,8 C 0,0 C 81 % 1012,3 hPa 0,0 l/m 0 min 0 min 0 W/m 16,1 km/h (3 Bft) 100,00 %
27.03.2023 00:48 3,9 C 2,8 C 0,0 C 81 % 1012,3 hPa 0,0 l/m 0 min 0 min 0 W/m 16,1 km/h (3 Bft) 100,00 %
27.03.2023 00:50 3,9 C 2,8 C 0,0 C 81 % 1012,3 hPa 0,0 l/m 0 min 0 min 0 W/m 12,9 km/h (3 Bft) 97,83 %
27.03.2023 00:52 3,9 C 2,8 C 0,0 C 81 % 1012,4 hPa 0,0 l/m 0 min 0 min 0 W/m 16,1 km/h (3 Bft) 100,00 %
27.03.2023 00:54 3,9 C 2,8 C 0,0 C 82 % 1012,5 hPa 0,0 l/m 0 min 0 min 0 W/m 12,9 km/h (3 Bft) 100,00 %
27.03.2023 00:56 3,8 C 2,8 C 0,0 C 82 % 1012,5 hPa 0,0 l/m 0 min 0 min 0 W/m 6,4 km/h (2 Bft) 98,18 %
27.03.2023 00:58 3,8 C 2,8 C 0,0 C 82 % 1012,6 hPa 0,0 l/m 0 min 0 min 0 W/m 12,9 km/h (3 Bft) 97,87 %
27.03.2023 01:00 3,8 C 2,8 C 0,0 C 82 % 1012,6 hPa 0,0 l/m 0 min 0 min 0 W/m 6,4 km/h (2 Bft) 97,87 %
27.03.2023 01:02 3,8 C 2,8 C 0,0 C 82 % 1012,8 hPa 0,0 l/m 0 min 0 min 0 W/m 9,7 km/h (2 Bft) 93,62 %
27.03.2023 01:04 3,8 C 2,8 C 0,0 C 82 % 1012,8 hPa 0,0 l/m 0 min 0 min 0 W/m 12,9 km/h (3 Bft) 97,87 %
27.03.2023 01:06 3,7 C 2,8 C -0,6 C 82 % 1012,8 hPa 0,0 l/m 0 min 0 min 0 W/m 9,7 km/h (2 Bft) 98,00 %
27.03.2023 01:08 3,7 C 2,8 C -0,6 C 82 % 1012,8 hPa 0,0 l/m 0 min 0 min 0 W/m 9,7 km/h (2 Bft) 97,14 %
27.03.2023 01:10 3,7 C 2,8 C -0,6 C 83 % 1012,8 hPa 0,0 l/m 0 min 0 min 0 W/m 9,7 km/h (2 Bft) 97,87 %
27.03.2023 01:12 3,7 C 2,8 C -0,6 C 83 % 1012,9 hPa 0,0 l/m 0 min 0 min 0 W/m 9,7 km/h (2 Bft) 95,65 %
27.03.2023 01:14 3,6 C 2,8 C -0,6 C 83 % 1012,9 hPa 0,0 l/m 0 min 0 min 0 W/m 16,1 km/h (3 Bft) 97,87 %
27.03.2023 01:16 3,6 C 2,8 C -0,6 C 83 % 1013,0 hPa 0,0 l/m 0 min 0 min 0 W/m 16,1 km/h (3 Bft) 95,92 %
27.03.2023 01:18 3,6 C 2,8 C -0,6 C 83 % 1013,0 hPa 0,0 l/m 0 min 0 min 0 W/m 9,7 km/h (2 Bft) 95,74 %
27.03.2023 01:20 3,6 C 2,8 C -0,6 C 83 % 1013,0 hPa 0,0 l/m 0 min 0 min 0 W/m 16,1 km/h (3 Bft) 97,87 %
27.03.2023 01:22 3,6 C 2,8 C -0,6 C 84 % 1013,1 hPa 0,0 l/m 0 min 0 min 0 W/m 12,9 km/h (3 Bft) 97,73 %
27.03.2023 01:24 3,6 C 2,8 C -0,6 C 83 % 1013,0 hPa 0,0 l/m 0 min 0 min 0 W/m 12,9 km/h (3 Bft) 100,00 %
27.03.2023 01:26 3,5 C 2,8 C -0,6 C 83 % 1013,2 hPa 0,0 l/m 0 min 0 min 0 W/m 6,4 km/h (2 Bft) 100,00 %
27.03.2023 01:28 3,5 C 2,8 C -0,6 C 84 % 1013,2 hPa 0,0 l/m 0 min 0 min 0 W/m 16,1 km/h (3 Bft) 97,87 %
27.03.2023 01:30 3,5 C 2,8 C -0,6 C 84 % 1013,2 hPa 0,0 l/m 0 min 0 min 0 W/m 16,1 km/h (3 Bft) 97,83 %
27.03.2023 01:32 3,4 C 2,8 C -0,6 C 84 % 1013,3 hPa 0,0 l/m 0 min 0 min 0 W/m 12,9 km/h (3 Bft) 100,00 %
27.03.2023 01:34 3,4 C 2,8 C -0,6 C 84 % 1013,4 hPa 0,0 l/m 0 min 0 min 0 W/m 9,7 km/h (2 Bft) 95,74 %
27.03.2023 01:36 3,4 C 2,8 C -0,6 C 84 % 1013,4 hPa 0,0 l/m 0 min 0 min 0 W/m 12,9 km/h (3 Bft) 95,74 %
27.03.2023 01:38 3,4 C 2,8 C -0,6 C 84 % 1013,4 hPa 0,0 l/m 0 min 0 min 0 W/m 12,9 km/h (3 Bft) 97,87 %
27.03.2023 01:40 3,4 C 2,8 C -0,6 C 84 % 1013,4 hPa 0,0 l/m 0 min 0 min 0 W/m 12,9 km/h (3 Bft) 100,00 %
27.03.2023 01:42 3,4 C 2,8 C -0,6 C 84 % 1013,5 hPa 0,0 l/m 0 min 0 min 0 W/m 9,7 km/h (2 Bft) 97,87 %
27.03.2023 01:44 3,4 C 2,8 C -0,6 C 84 % 1013,6 hPa 0,0 l/m 0 min 0 min 0 W/m 22,5 km/h (4 Bft) 100,00 %
27.03.2023 01:46 3,4 C 2,8 C -0,6 C 84 % 1013,6 hPa 0,0 l/m 0 min 0 min 0 W/m 9,7 km/h (2 Bft) 98,15 %
27.03.2023 01:48 3,3 C 2,8 C -0,6 C 84 % 1013,6 hPa 0,0 l/m 0 min 0 min 0 W/m 12,9 km/h (3 Bft) 97,83 %
27.03.2023 01:50 3,3 C 2,2 C -0,6 C 84 % 1013,6 hPa 0,0 l/m 0 min 0 min 0 W/m 12,9 km/h (3 Bft) 95,74 %
27.03.2023 01:52 3,3 C 2,2 C -0,6 C 84 % 1013,6 hPa 0,0 l/m 0 min 0 min 0 W/m 12,9 km/h (3 Bft) 97,87 %
27.03.2023 01:54 3,3 C 2,2 C -0,6 C 84 % 1013,7 hPa 0,0 l/m 0 min 0 min 0 W/m 12,9 km/h (3 Bft) 97,87 %
27.03.2023 01:56 3,3 C 2,8 C -0,6 C 84 % 1013,8 hPa 0,0 l/m 0 min 0 min 0 W/m 12,9 km/h (3 Bft) 97,87 %
27.03.2023 01:58 3,3 C 2,8 C -0,6 C 84 % 1013,8 hPa 0,0 l/m 0 min 0 min 0 W/m 12,9 km/h (3 Bft) 97,87 %
27.03.2023 02:00 3,3 C 2,8 C -0,6 C 84 % 1013,9 hPa 0,0 l/m 0 min 0 min 0 W/m 9,7 km/h (2 Bft) 97,37 %
27.03.2023 02:02 3,3 C 2,2 C -0,6 C 84 % 1014,0 hPa 0,0 l/m 0 min 0 min 0 W/m 12,9 km/h (3 Bft) 97,87 %
27.03.2023 02:04 3,3 C 2,2 C -0,6 C 84 % 1013,9 hPa 0,0 l/m 0 min 0 min 0 W/m 12,9 km/h (3 Bft) 95,65 %
27.03.2023 02:06 3,2 C 2,2 C -0,6 C 84 % 1014,0 hPa 0,0 l/m 0 min 0 min 0 W/m 9,7 km/h (2 Bft) 96,67 %
27.03.2023 02:08 3,2 C 2,2 C -0,6 C 84 % 1014,0 hPa 0,0 l/m 0 min 0 min 0 W/m 6,4 km/h (2 Bft) 100,00 %
27.03.2023 02:10 3,2 C 2,2 C -0,6 C 85 % 1014,0 hPa 0,0 l/m 0 min 0 min 0 W/m 12,9 km/h (3 Bft) 93,88 %
27.03.2023 02:12 3,2 C 2,2 C -0,6 C 85 % 1014,0 hPa 0,0 l/m 0 min 0 min 0 W/m 6,4 km/h (2 Bft) 93,62 %
27.03.2023 02:14 3,2 C 2,2 C -0,6 C 85 % 1014,1 hPa 0,0 l/m 0 min 0 min 0 W/m 9,7 km/h (2 Bft) 95,74 %
27.03.2023 02:16 3,2 C 2,2 C -0,6 C 85 % 1014,1 hPa 0,0 l/m 0 min 0 min 0 W/m 12,9 km/h (3 Bft) 91,49 %
27.03.2023 02:18 3,2 C 2,2 C -0,6 C 85 % 1014,1 hPa 0,0 l/m 0 min 0 min 0 W/m 6,4 km/h (2 Bft) 93,48 %
27.03.2023 02:20 3,2 C 2,2 C -0,6 C 85 % 1014,1 hPa 0,0 l/m 0 min 0 min 0 W/m 6,4 km/h (2 Bft) 93,75 %
27.03.2023 02:22 3,1 C 2,2 C -0,6 C 85 % 1014,1 hPa 0,0 l/m 0 min 0 min 0 W/m 9,7 km/h (2 Bft) 93,62 %
27.03.2023 02:24 3,1 C 2,2 C -1,1 C 85 % 1014,2 hPa 0,0 l/m 0 min 0 min 0 W/m 6,4 km/h (2 Bft) 97,96 %
27.03.2023 02:26 3,1 C 2,2 C -1,1 C 85 % 1014,3 hPa 0,0 l/m 0 min 0 min 0 W/m 6,4 km/h (2 Bft) 97,87 %
27.03.2023 02:28 3,1 C 2,2 C -1,1 C 85 % 1014,3 hPa 0,0 l/m 0 min 0 min 0 W/m 9,7 km/h (2 Bft) 97,87 %
27.03.2023 02:30 3,1 C 2,2 C -1,1 C 85 % 1014,4 hPa 0,0 l/m 0 min 0 min 0 W/m 6,4 km/h (2 Bft) 97,83 %
27.03.2023 02:32 3,0 C 2,2 C -0,6 C 85 % 1014,4 hPa 0,0 l/m 0 min 0 min 0 W/m 6,4 km/h (2 Bft) 95,83 %
27.03.2023 02:34 3,0 C 2,2 C -0,6 C 85 % 1014,4 hPa 0,0 l/m 0 min 0 min 0 W/m 6,4 km/h (2 Bft) 95,74 %
27.03.2023 02:36 2,9 C 2,2 C -1,1 C 85 % 1014,5 hPa 0,0 l/m 0 min 0 min 0 W/m 6,4 km/h (2 Bft) 95,65 %
27.03.2023 02:38 2,9 C 2,2 C -1,1 C 86 % 1014,5 hPa 0,0 l/m 0 min 0 min 0 W/m 6,4 km/h (2 Bft) 93,88 %
27.03.2023 02:40 2,9 C 2,2 C -1,1 C 86 % 1014,5 hPa 0,0 l/m 0 min 0 min 0 W/m 9,7 km/h (2 Bft) 94,29 %
27.03.2023 02:42 2,9 C 2,2 C -1,1 C 86 % 1014,5 hPa 0,0 l/m 0 min 0 min 0 W/m 6,4 km/h (2 Bft) 93,62 %
27.03.2023 02:44 2,8 C 1,7 C -1,1 C 86 % 1014,5 hPa 0,0 l/m 0 min 0 min 0 W/m 6,4 km/h (2 Bft) 93,62 %
27.03.2023 02:46 2,8 C 1,7 C -1,1 C 86 % 1014,5 hPa 0,0 l/m 0 min 0 min 0 W/m 3,2 km/h (1 Bft) 95,74 %
27.03.2023 02:48 2,8 C 1,7 C -1,1 C 86 % 1014,6 hPa 0,0 l/m 0 min 0 min 0 W/m 6,4 km/h (2 Bft) 95,83 %
27.03.2023 02:50 2,8 C 1,7 C -1,1 C 86 % 1014,5 hPa 0,0 l/m 0 min 0 min 0 W/m 3,2 km/h (1 Bft) 93,62 %
27.03.2023 02:52 2,7 C 1,7 C -1,1 C 86 % 1014,6 hPa 0,0 l/m 0 min 0 min 0 W/m 6,4 km/h (2 Bft) 95,65 %
27.03.2023 02:54 2,7 C 1,7 C -1,1 C 86 % 1014,5 hPa 0,0 l/m 0 min 0 min 0 W/m 6,4 km/h (2 Bft) 93,62 %
27.03.2023 02:56 2,7 C 1,7 C -1,1 C 86 % 1014,6 hPa 0,0 l/m 0 min 0 min 0 W/m 6,4 km/h (2 Bft) 91,49 %
27.03.2023 02:58 2,7 C 1,7 C -1,1 C 86 % 1014,7 hPa 0,0 l/m 0 min 0 min 0 W/m 3,2 km/h (1 Bft) 95,92 %
27.03.2023 03:00 2,7 C 1,7 C -1,1 C 87 % 1014,7 hPa 0,0 l/m 0 min 0 min 0 W/m 6,4 km/h (2 Bft) 95,74 %
27.03.2023 03:02 2,6 C 1,7 C -1,1 C 87 % 1014,7 hPa 0,0 l/m 0 min 0 min 0 W/m 3,2 km/h (1 Bft) 93,62 %
27.03.2023 03:04 2,6 C 1,7 C -1,1 C 87 % 1014,8 hPa 0,0 l/m 0 min 0 min 0 W/m 6,4 km/h (2 Bft) 95,74 %
27.03.2023 03:06 2,6 C 1,7 C -1,1 C 87 % 1014,9 hPa 0,0 l/m 0 min 0 min 0 W/m 6,4 km/h (2 Bft) 97,87 %
27.03.2023 03:08 2,5 C 1,1 C -1,7 C 87 % 1014,9 hPa 0,0 l/m 0 min 0 min 0 W/m 6,4 km/h (2 Bft) 95,74 %
27.03.2023 03:10 2,5 C 1,1 C -1,7 C 87 % 1014,9 hPa 0,0 l/m 0 min 0 min 0 W/m 6,4 km/h (2 Bft) 97,87 %
27.03.2023 03:12 2,4 C 1,1 C -1,7 C 87 % 1014,9 hPa 0,0 l/m 0 min 0 min 0 W/m 3,2 km/h (1 Bft) 95,74 %
27.03.2023 03:14 2,4 C 1,1 C -1,7 C 87 % 1014,9 hPa 0,0 l/m 0 min 0 min 0 W/m 6,4 km/h (2 Bft) 95,74 %
27.03.2023 03:16 2,4 C 1,1 C -1,7 C 87 % 1014,9 hPa 0,0 l/m 0 min 0 min 0 W/m 9,7 km/h (2 Bft) 97,83 %
27.03.2023 03:18 2,3 C 1,1 C -1,7 C 87 % 1015,0 hPa 0,0 l/m 0 min 0 min 0 W/m 3,2 km/h (1 Bft) 97,87 %
27.03.2023 03:20 2,3 C 1,1 C -1,7 C 87 % 1015,0 hPa 0,0 l/m 0 min 0 min 0 W/m 6,4 km/h (2 Bft) 97,87 %
27.03.2023 03:22 2,3 C 1,1 C -1,7 C 87 % 1015,1 hPa 0,0 l/m 0 min 0 min 0 W/m 3,2 km/h (1 Bft) 100,00 %
27.03.2023 03:24 2,3 C 1,1 C -1,7 C 88 % 1015,1 hPa 0,0 l/m 0 min 0 min 0 W/m 3,2 km/h (1 Bft) 97,87 %
27.03.2023 03:26 2,2 C 1,1 C -1,7 C 88 % 1015,1 hPa 0,0 l/m 0 min 0 min 0 W/m 6,4 km/h (2 Bft) 97,87 %
27.03.2023 03:28 2,2 C 1,1 C -1,7 C 88 % 1015,1 hPa 0,0 l/m 0 min 0 min 0 W/m 6,4 km/h (2 Bft) 100,00 %
27.03.2023 03:30 2,2 C 1,1 C -1,7 C 88 % 1015,1 hPa 0,0 l/m 0 min 0 min 0 W/m 6,4 km/h (2 Bft) 100,00 %
27.03.2023 03:32 2,2 C 1,1 C -1,7 C 88 % 1015,1 hPa 0,0 l/m 0 min 0 min 0 W/m 9,7 km/h (2 Bft) 95,74 %
27.03.2023 03:34 2,1 C 1,1 C -1,7 C 88 % 1015,1 hPa 0,0 l/m 0 min 0 min 0 W/m 12,9 km/h (3 Bft) 100,00 %
27.03.2023 03:36 2,1 C 1,1 C -1,7 C 88 % 1015,2 hPa 0,0 l/m 0 min 0 min 0 W/m 6,4 km/h (2 Bft) 100,00 %
27.03.2023 03:38 2,1 C 1,1 C -1,7 C 88 % 1015,1 hPa 0,0 l/m 0 min 0 min 0 W/m 6,4 km/h (2 Bft) 100,00 %
27.03.2023 03:40 2,1 C 1,1 C -1,7 C 88 % 1015,1 hPa 0,0 l/m 0 min 0 min 0 W/m 6,4 km/h (2 Bft) 100,00 %
27.03.2023 03:42 2,1 C 1,1 C -1,7 C 88 % 1015,2 hPa 0,0 l/m 0 min 0 min 0 W/m 6,4 km/h (2 Bft) 95,74 %
27.03.2023 03:44 2,1 C 1,1 C -1,7 C 88 % 1015,2 hPa 0,0 l/m 0 min 0 min 0 W/m 6,4 km/h (2 Bft) 100,00 %
27.03.2023 03:46 2,0 C 1,1 C -1,7 C 88 % 1015,2 hPa 0,0 l/m 0 min 0 min 0 W/m 6,4 km/h (2 Bft) 97,87 %
27.03.2023 03:48 2,0 C 1,1 C -1,7 C 88 % 1015,4 hPa 0,0 l/m 0 min 0 min 0 W/m 6,4 km/h (2 Bft) 100,00 %
27.03.2023 03:50 1,9 C 1,1 C -1,7 C 88 % 1015,4 hPa 0,0 l/m 0 min 0 min 0 W/m 12,9 km/h (3 Bft) 97,87 %
27.03.2023 03:52 1,9 C 1,1 C -1,7 C 88 % 1015,4 hPa 0,0 l/m 0 min 0 min 0 W/m 6,4 km/h (2 Bft) 97,87 %
27.03.2023 03:54 1,9 C 1,1 C -1,7 C 89 % 1015,4 hPa 0,0 l/m 0 min 0 min 0 W/m 6,4 km/h (2 Bft) 95,92 %
27.03.2023 03:56 1,9 C 1,1 C -1,7 C 89 % 1015,4 hPa 0,0 l/m 0 min 0 min 0 W/m 6,4 km/h (2 Bft) 95,74 %
27.03.2023 03:58 1,9 C 1,1 C -1,7 C 88 % 1015,4 hPa 0,0 l/m 0 min 0 min 0 W/m 6,4 km/h (2 Bft) 97,87 %
27.03.2023 04:00 1,9 C 1,1 C -1,7 C 89 % 1015,5 hPa 0,0 l/m 0 min 0 min 0 W/m 9,7 km/h (2 Bft) 97,14 %
27.03.2023 04:05 1,9 C 1,1 C -1,7 C 89 % 1015,5 hPa 0,0 l/m 0 min 0 min 0 W/m 9,7 km/h (2 Bft) 96,30 %
27.03.2023 04:06 1,9 C 1,1 C -1,7 C 89 % 1015,5 hPa 0,0 l/m 0 min 0 min 0 W/m 3,2 km/h (1 Bft) 86,96 %
27.03.2023 04:08 1,9 C 1,1 C -1,7 C 89 % 1015,5 hPa 0,0 l/m 0 min 0 min 0 W/m 6,4 km/h (2 Bft) 97,22 %
27.03.2023 04:10 1,9 C 1,1 C -1,7 C 89 % 1015,6 hPa 0,0 l/m 0 min 0 min 0 W/m 3,2 km/h (1 Bft) 45,95 %
27.03.2023 04:12 1,8 C 1,1 C -1,7 C 89 % 1015,6 hPa 0,0 l/m 0 min 0 min 0 W/m 6,4 km/h (2 Bft) 92,68 %
27.03.2023 04:14 1,8 C 1,1 C -1,7 C 89 % 1015,7 hPa 0,0 l/m 0 min 0 min 0 W/m 9,7 km/h (2 Bft) 97,87 %
27.03.2023 04:16 1,8 C 1,1 C -1,7 C 89 % 1015,7 hPa 0,0 l/m 0 min 0 min 0 W/m 6,4 km/h (2 Bft) 95,74 %
27.03.2023 04:18 1,8 C 1,1 C -1,7 C 89 % 1015,7 hPa 0,0 l/m 0 min 0 min 0 W/m 6,4 km/h (2 Bft) 95,65 %
27.03.2023 04:20 1,8 C 1,1 C -1,7 C 89 % 1015,8 hPa 0,0 l/m 0 min 0 min 0 W/m 6,4 km/h (2 Bft) 95,92 %
27.03.2023 04:22 1,8 C 1,1 C -1,7 C 89 % 1015,8 hPa 0,0 l/m 0 min 0 min 0 W/m 9,7 km/h (2 Bft) 93,62 %
27.03.2023 04:24 1,8 C 1,1 C -1,7 C 89 % 1015,8 hPa 0,0 l/m 0 min 0 min 0 W/m 9,7 km/h (2 Bft) 97,62 %
27.03.2023 04:26 1,8 C 1,1 C -1,7 C 89 % 1015,8 hPa 0,0 l/m 0 min 0 min 0 W/m 6,4 km/h (2 Bft) 93,62 %
27.03.2023 04:28 1,8 C 1,1 C -1,7 C 89 % 1015,9 hPa 0,0 l/m 0 min 0 min 0 W/m 6,4 km/h (2 Bft) 95,74 %
27.03.2023 04:30 1,7 C 1,1 C -1,7 C 89 % 1016,0 hPa 0,0 l/m 0 min 0 min 0 W/m 3,2 km/h (1 Bft) 97,83 %
27.03.2023 04:32 1,7 C 1,1 C -1,7 C 89 % 1015,9 hPa 0,0 l/m 0 min 0 min 0 W/m 6,4 km/h (2 Bft) 97,87 %
27.03.2023 04:34 1,7 C 1,1 C -1,7 C 89 % 1016,0 hPa 0,0 l/m 0 min 0 min 0 W/m 3,2 km/h (1 Bft) 97,87 %
27.03.2023 04:36 1,7 C 0,6 C -1,7 C 89 % 1015,9 hPa 0,0 l/m 0 min 0 min 0 W/m 6,4 km/h (2 Bft) 97,87 %
27.03.2023 04:38 1,7 C 0,6 C -2,2 C 89 % 1016,0 hPa 0,0 l/m 0 min 0 min 0 W/m 3,2 km/h (1 Bft) 97,87 %
27.03.2023 04:40 1,7 C 0,6 C -2,2 C 89 % 1016,1 hPa 0,0 l/m 0 min 0 min 0 W/m 6,4 km/h (2 Bft) 97,87 %
27.03.2023 04:42 1,6 C 0,6 C -2,2 C 89 % 1016,1 hPa 0,0 l/m 0 min 0 min 0 W/m 6,4 km/h (2 Bft) 95,83 %
27.03.2023 04:44 1,6 C 0,6 C -2,2 C 89 % 1016,1 hPa 0,0 l/m 0 min 0 min 0 W/m 6,4 km/h (2 Bft) 100,00 %
27.03.2023 04:46 1,6 C 0,6 C -2,2 C 89 % 1016,1 hPa 0,0 l/m 0 min 0 min 0 W/m 6,4 km/h (2 Bft) 100,00 %
27.03.2023 04:48 1,6 C 0,6 C -2,2 C 89 % 1016,1 hPa 0,0 l/m 0 min 0 min 0 W/m 3,2 km/h (1 Bft) 100,00 %
27.03.2023 04:50 1,6 C 0,6 C -2,2 C 89 % 1016,1 hPa 0,0 l/m 0 min 0 min 0 W/m 6,4 km/h (2 Bft) 95,74 %
27.03.2023 04:52 1,6 C 0,6 C -2,2 C 90 % 1016,1 hPa 0,0 l/m 0 min 0 min 0 W/m 6,4 km/h (2 Bft) 100,00 %
27.03.2023 04:54 1,5 C 0,6 C -2,2 C 90 % 1016,2 hPa 0,0 l/m 0 min 0 min 0 W/m 3,2 km/h (1 Bft) 100,00 %
27.03.2023 04:56 1,5 C 0,6 C -2,2 C 90 % 1016,2 hPa 0,0 l/m 0 min 0 min 0 W/m 6,4 km/h (2 Bft) 100,00 %
27.03.2023 04:58 1,5 C 0,6 C -2,2 C 89 % 1016,2 hPa 0,0 l/m 0 min 0 min 0 W/m 6,4 km/h (2 Bft) 100,00 %
27.03.2023 05:00 1,5 C 0,6 C -2,2 C 89 % 1016,2 hPa 0,0 l/m 0 min 0 min 0 W/m 3,2 km/h (1 Bft) 97,92 %
27.03.2023 05:02 1,4 C 0,6 C -2,2 C 90 % 1016,2 hPa 0,0 l/m 0 min 0 min 0 W/m 6,4 km/h (2 Bft) 100,00 %
27.03.2023 05:04 1,4 C 0,6 C -2,2 C 90 % 1016,3 hPa 0,0 l/m 0 min 0 min 0 W/m 6,4 km/h (2 Bft) 97,22 %
27.03.2023 05:06 1,4 C 0,6 C -2,2 C 90 % 1016,3 hPa 0,0 l/m 0 min 0 min 0 W/m 6,4 km/h (2 Bft) 100,00 %
27.03.2023 05:08 1,4 C 0,6 C -2,2 C 90 % 1016,4 hPa 0,0 l/m 0 min 0 min 0 W/m 6,4 km/h (2 Bft) 100,00 %
27.03.2023 05:10 1,4 C 0,6 C -2,2 C 90 % 1016,3 hPa 0,0 l/m 0 min 0 min 0 W/m 3,2 km/h (1 Bft) 100,00 %
27.03.2023 05:12 1,3 C 0,6 C -2,2 C 90 % 1016,4 hPa 0,0 l/m 0 min 0 min 0 W/m 3,2 km/h (1 Bft) 100,00 %
27.03.2023 05:14 1,3 C 0,6 C -2,2 C 90 % 1016,4 hPa 0,0 l/m 0 min 0 min 0 W/m 6,4 km/h (2 Bft) 100,00 %
27.03.2023 05:16 1,3 C 0,6 C -2,2 C 90 % 1016,5 hPa 0,0 l/m 0 min 0 min 0 W/m 6,4 km/h (2 Bft) 100,00 %
27.03.2023 05:18 1,3 C 0,6 C -2,2 C 90 % 1016,6 hPa 0,0 l/m 0 min 0 min 0 W/m 3,2 km/h (1 Bft) 100,00 %
27.03.2023 05:20 1,3 C 0,6 C -2,2 C 90 % 1016,5 hPa 0,0 l/m 0 min 0 min 0 W/m 3,2 km/h (1 Bft) 100,00 %
27.03.2023 05:22 1,3 C 0,6 C -2,2 C 90 % 1016,6 hPa 0,0 l/m 0 min 0 min 0 W/m 3,2 km/h (1 Bft) 97,87 %
27.03.2023 05:24 1,3 C 0,6 C -2,2 C 90 % 1016,6 hPa 0,0 l/m 0 min 0 min 0 W/m 3,2 km/h (1 Bft) 100,00 %
27.03.2023 05:26 1,3 C 0,6 C -2,2 C 90 % 1016,6 hPa 0,0 l/m 0 min 0 min 0 W/m 3,2 km/h (1 Bft) 100,00 %
27.03.2023 05:28 1,2 C 0,6 C -2,2 C 90 % 1016,6 hPa 0,0 l/m 0 min 0 min 0 W/m 3,2 km/h (1 Bft) 100,00 %
27.03.2023 05:30 1,2 C 0,0 C -2,2 C 90 % 1016,7 hPa 0,0 l/m 0 min 0 min 0 W/m 3,2 km/h (1 Bft) 95,65 %
27.03.2023 05:32 1,2 C 0,6 C -2,2 C 90 % 1016,7 hPa 0,0 l/m 0 min 0 min 0 W/m 3,2 km/h (1 Bft) 100,00 %
27.03.2023 05:34 1,2 C 0,0 C -2,2 C 90 % 1016,7 hPa 0,0 l/m 0 min 0 min 0 W/m 3,2 km/h (1 Bft) 100,00 %
27.03.2023 05:36 1,2 C 0,6 C -2,2 C 90 % 1016,8 hPa 0,0 l/m 0 min 0 min 0 W/m 3,2 km/h (1 Bft) 100,00 %
27.03.2023 05:38 1,2 C 0,6 C -2,2 C 91 % 1016,9 hPa 0,0 l/m 0 min 0 min 0 W/m 3,2 km/h (1 Bft) 100,00 %
27.03.2023 05:40 1,2 C 0,6 C -2,2 C 91 % 1016,9 hPa 0,0 l/m 0 min 0 min 0 W/m 6,4 km/h (2 Bft) 97,87 %
27.03.2023 05:42 1,2 C 0,6 C -2,2 C 91 % 1016,9 hPa 0,0 l/m 0 min 0 min 0 W/m 3,2 km/h (1 Bft) 97,83 %
27.03.2023 05:44 1,2 C 0,0 C -2,2 C 91 % 1017,0 hPa 0,0 l/m 0 min 0 min 0 W/m 3,2 km/h (1 Bft) 100,00 %
27.03.2023 05:46 1,1 C 0,0 C -2,2 C 91 % 1016,9 hPa 0,0 l/m 0 min 0 min 0 W/m 3,2 km/h (1 Bft) 100,00 %
27.03.2023 05:48 1,1 C 0,0 C -2,2 C 91 % 1016,9 hPa 0,0 l/m 0 min 0 min 0 W/m 3,2 km/h (1 Bft) 100,00 %
27.03.2023 05:50 1,1 C 0,0 C -2,2 C 91 % 1017,0 hPa 0,0 l/m 0 min 0 min 0 W/m 3,2 km/h (1 Bft) 93,88 %
27.03.2023 05:52 1,1 C 0,0 C -2,2 C 91 % 1017,0 hPa 0,0 l/m 0 min 0 min 0 W/m 3,2 km/h (1 Bft) 95,74 %
27.03.2023 05:54 1,1 C 0,0 C -2,2 C 91 % 1017,0 hPa 0,0 l/m 0 min 0 min 0 W/m 3,2 km/h (1 Bft) 97,87 %
27.03.2023 05:56 1,1 C 0,0 C -2,2 C 91 % 1017,1 hPa 0,0 l/m 0 min 0 min 0 W/m 3,2 km/h (1 Bft) 97,83 %
27.03.2023 05:58 1,1 C 0,0 C -2,2 C 91 % 1017,1 hPa 0,0 l/m 0 min 0 min 0 W/m 3,2 km/h (1 Bft) 97,87 %
27.03.2023 06:00 1,1 C 0,0 C -2,2 C 91 % 1017,1 hPa 0,0 l/m 0 min 0 min 0 W/m 3,2 km/h (1 Bft) 94,29 %
27.03.2023 06:02 1,1 C 0,0 C -2,2 C 91 % 1017,1 hPa 0,0 l/m 0 min 0 min 0 W/m 3,2 km/h (1 Bft) 93,62 %
27.03.2023 06:04 1,1 C 0,0 C -2,2 C 91 % 1017,1 hPa 0,0 l/m 0 min 0 min 0 W/m 3,2 km/h (1 Bft) 93,22 %
27.03.2023 06:08 1,1 C 0,6 C -2,2 C 91 % 1017,2 hPa 0,0 l/m 0 min 0 min 0 W/m 3,2 km/h (1 Bft) 92,13 %
27.03.2023 06:10 1,1 C 0,6 C -2,2 C 91 % 1017,2 hPa 0,0 l/m 0 min 0 min 0 W/m 3,2 km/h (1 Bft) 93,62 %
27.03.2023 06:12 1,1 C 0,6 C -2,2 C 91 % 1017,3 hPa 0,0 l/m 0 min 0 min 0 W/m 3,2 km/h (1 Bft) 91,49 %
27.03.2023 06:14 1,1 C 0,0 C -2,2 C 91 % 1017,3 hPa 0,0 l/m 0 min 0 min 0 W/m 3,2 km/h (1 Bft) 93,75 %
27.03.2023 06:16 1,1 C 0,0 C -2,2 C 92 % 1017,3 hPa 0,0 l/m 0 min 0 min 0 W/m 3,2 km/h (1 Bft) 95,74 %
27.03.2023 06:18 1,1 C 0,6 C -2,2 C 92 % 1017,3 hPa 0,0 l/m 0 min 0 min 0 W/m 3,2 km/h (1 Bft) 95,74 %
27.03.2023 06:20 1,1 C 0,6 C -2,2 C 92 % 1017,3 hPa 0,0 l/m 0 min 0 min 0 W/m 3,2 km/h (1 Bft) 59,57 %
27.03.2023 06:22 1,1 C 0,6 C -2,2 C 92 % 1017,5 hPa 0,0 l/m 0 min 0 min 0 W/m 3,2 km/h (1 Bft) 87,10 %
27.03.2023 06:24 1,1 C 0,6 C -2,2 C 92 % 1017,4 hPa 0,0 l/m 0 min 0 min 0 W/m 3,2 km/h (1 Bft) 95,74 %
27.03.2023 06:26 1,1 C 0,6 C -2,2 C 92 % 1017,4 hPa 0,0 l/m 0 min 0 min 0 W/m 6,4 km/h (2 Bft) 93,62 %
27.03.2023 06:28 1,1 C 0,6 C -2,2 C 92 % 1017,4 hPa 0,0 l/m 0 min 0 min 0 W/m 3,2 km/h (1 Bft) 93,62 %
27.03.2023 06:30 1,1 C 0,6 C -2,2 C 92 % 1017,4 hPa 0,0 l/m 0 min 0 min 0 W/m 3,2 km/h (1 Bft) 95,74 %
27.03.2023 06:32 1,1 C 0,6 C -2,2 C 92 % 1017,4 hPa 0,0 l/m 0 min 0 min 0 W/m 3,2 km/h (1 Bft) 93,48 %
27.03.2023 06:34 1,2 C 0,6 C -2,2 C 92 % 1017,5 hPa 0,0 l/m 0 min 0 min 0 W/m 3,2 km/h (1 Bft) 97,87 %
27.03.2023 06:39 1,3 C 1,1 C -2,2 C 92 % 1017,6 hPa 0,0 l/m 0 min 0 min 0 W/m 3,2 km/h (1 Bft) 100,00 %
27.03.2023 06:40 1,3 C 1,1 C -2,2 C 92 % 1017,6 hPa 0,0 l/m 0 min 0 min 0 W/m 3,2 km/h (1 Bft) 95,83 %
27.03.2023 06:42 1,3 C 0,6 C -2,2 C 92 % 1017,7 hPa 0,0 l/m 0 min 0 min 0 W/m 3,2 km/h (1 Bft) 95,74 %
27.03.2023 06:44 1,3 C 0,6 C -1,7 C 92 % 1017,7 hPa 0,0 l/m 0 min 0 min 0 W/m 3,2 km/h (1 Bft) 97,83 %
27.03.2023 06:46 1,3 C 0,6 C -1,7 C 92 % 1017,7 hPa 0,0 l/m 0 min 0 min 0 W/m 0,0 km/h (0 Bft) 97,87 %
27.03.2023 06:48 1,3 C 0,6 C -1,7 C 92 % 1017,7 hPa 0,0 l/m 0 min 0 min 0 W/m 3,2 km/h (1 Bft) 97,87 %
27.03.2023 06:53 1,3 C 0,6 C -1,7 C 93 % 1017,8 hPa 0,0 l/m 0 min 0 min 0 W/m 6,4 km/h (2 Bft) 94,55 %
27.03.2023 06:54 1,3 C 0,6 C -1,7 C 93 % 1017,8 hPa 0,0 l/m 0 min 0 min 0 W/m 0,0 km/h (0 Bft) 100,00 %
27.03.2023 06:56 1,3 C 0,6 C -1,7 C 93 % 1017,9 hPa 0,0 l/m 0 min 0 min 0 W/m 0,0 km/h (0 Bft) 93,48 %
27.03.2023 06:58 1,3 C 0,6 C -1,7 C 93 % 1017,9 hPa 0,0 l/m 0 min 0 min 0 W/m 0,0 km/h (0 Bft) 100,00 %
27.03.2023 07:03 1,3 C 0,6 C -1,7 C 93 % 1018,0 hPa 0,0 l/m 0 min 0 min 0 W/m 3,2 km/h (1 Bft) 91,80 %
27.03.2023 07:04 1,3 C 0,6 C -1,7 C 93 % 1018,0 hPa 0,0 l/m 0 min 0 min 0 W/m 0,0 km/h (0 Bft) 73,42 %
27.03.2023 07:06 1,3 C 0,6 C -1,7 C 93 % 1018,0 hPa 0,0 l/m 0 min 0 min 0 W/m 3,2 km/h (1 Bft) 93,75 %
27.03.2023 07:08 1,3 C 0,6 C -2,2 C 92 % 1018,0 hPa 0,0 l/m 0 min 0 min 0 W/m 3,2 km/h (1 Bft) 97,87 %
27.03.2023 07:10 1,3 C 0,6 C -2,2 C 92 % 1018,0 hPa 0,0 l/m 0 min 0 min 0 W/m 3,2 km/h (1 Bft) 97,87 %
27.03.2023 07:12 1,3 C 0,6 C -2,2 C 92 % 1018,1 hPa 0,0 l/m 0 min 0 min 0 W/m 6,4 km/h (2 Bft) 100,00 %
27.03.2023 07:14 1,3 C 0,6 C -2,2 C 93 % 1018,1 hPa 0,0 l/m 0 min 0 min 0 W/m 3,2 km/h (1 Bft) 100,00 %
27.03.2023 07:16 1,3 C 0,6 C -2,2 C 93 % 1018,1 hPa 0,0 l/m 0 min 0 min 0 W/m 6,4 km/h (2 Bft) 95,74 %
27.03.2023 07:18 1,3 C 0,6 C -2,2 C 93 % 1018,1 hPa 0,0 l/m 0 min 0 min 0 W/m 6,4 km/h (2 Bft) 100,00 %
27.03.2023 07:20 1,4 C 1,1 C -1,7 C 93 % 1018,2 hPa 0,0 l/m 0 min 0 min 0 W/m 6,4 km/h (2 Bft) 100,00 %
27.03.2023 07:22 1,4 C 1,1 C -1,7 C 93 % 1018,2 hPa 0,0 l/m 0 min 0 min 0 W/m 3,2 km/h (1 Bft) 97,87 %
27.03.2023 07:24 1,4 C 1,1 C -1,7 C 93 % 1018,2 hPa 0,0 l/m 0 min 0 min 0 W/m 3,2 km/h (1 Bft) 95,74 %
27.03.2023 07:26 1,5 C 1,1 C -1,7 C 93 % 1018,3 hPa 0,0 l/m 0 min 0 min 0 W/m 6,4 km/h (2 Bft) 97,87 %
27.03.2023 07:28 1,5 C 1,1 C -1,7 C 93 % 1018,3 hPa 0,0 l/m 0 min 0 min 3 W/m 6,4 km/h (2 Bft) 97,83 %
27.03.2023 07:30 1,6 C 1,1 C -1,7 C 93 % 1018,3 hPa 0,0 l/m 0 min 0 min 5 W/m 3,2 km/h (1 Bft) 97,87 %
27.03.2023 07:32 1,6 C 1,1 C -1,7 C 93 % 1018,3 hPa 0,0 l/m 0 min 0 min 5 W/m 6,4 km/h (2 Bft) 95,74 %
27.03.2023 07:34 1,6 C 1,1 C -1,7 C 93 % 1018,4 hPa 0,0 l/m 0 min 0 min 6 W/m 12,9 km/h (3 Bft) 97,87 %
27.03.2023 07:36 1,7 C 1,1 C -1,7 C 93 % 1018,4 hPa 0,0 l/m 0 min 0 min 7 W/m 9,7 km/h (2 Bft) 93,62 %
27.03.2023 07:38 1,7 C 1,1 C -1,7 C 93 % 1018,5 hPa 0,0 l/m 0 min 0 min 8 W/m 6,4 km/h (2 Bft) 97,87 %
27.03.2023 07:40 1,7 C 1,7 C -1,7 C 93 % 1018,5 hPa 0,0 l/m 0 min 0 min 9 W/m 6,4 km/h (2 Bft) 97,87 %
27.03.2023 07:42 1,7 C 1,7 C -1,1 C 93 % 1018,6 hPa 0,0 l/m 0 min 0 min 11 W/m 6,4 km/h (2 Bft) 97,83 %
27.03.2023 07:44 1,8 C 1,7 C -1,1 C 93 % 1018,5 hPa 0,0 l/m 0 min 0 min 11 W/m 3,2 km/h (1 Bft) 95,74 %
27.03.2023 07:46 1,8 C 1,7 C -1,1 C 93 % 1018,6 hPa 0,0 l/m 0 min 0 min 11 W/m 9,7 km/h (2 Bft) 93,62 %
27.03.2023 07:48 1,8 C 1,7 C -1,1 C 93 % 1018,7 hPa 0,0 l/m 0 min 0 min 12 W/m 9,7 km/h (2 Bft) 97,87 %
27.03.2023 07:50 1,8 C 1,7 C -1,1 C 93 % 1018,7 hPa 0,0 l/m 0 min 0 min 13 W/m 6,4 km/h (2 Bft) 93,62 %
27.03.2023 07:52 1,8 C 1,7 C -1,1 C 93 % 1018,7 hPa 0,0 l/m 0 min 0 min 15 W/m 6,4 km/h (2 Bft) 91,49 %
27.03.2023 07:54 1,9 C 1,7 C -1,1 C 93 % 1018,8 hPa 0,0 l/m 0 min 0 min 16 W/m 9,7 km/h (2 Bft) 100,00 %
27.03.2023 07:56 1,9 C 1,7 C -1,1 C 93 % 1018,8 hPa 0,0 l/m 0 min 0 min 14 W/m 12,9 km/h (3 Bft) 100,00 %
27.03.2023 07:58 1,9 C 1,7 C -1,1 C 94 % 1018,8 hPa 0,0 l/m 0 min 0 min 14 W/m 9,7 km/h (2 Bft) 97,87 %
27.03.2023 08:00 1,9 C 1,7 C -1,1 C 94 % 1018,8 hPa 0,0 l/m 0 min 0 min 15 W/m 9,7 km/h (2 Bft) 100,00 %
27.03.2023 08:02 1,9 C 1,7 C -1,1 C 94 % 1018,8 hPa 0,0 l/m 0 min 0 min 17 W/m 12,9 km/h (3 Bft) 100,00 %
27.03.2023 08:04 1,9 C 1,7 C -1,1 C 94 % 1018,9 hPa 0,0 l/m 0 min 0 min 20 W/m 19,3 km/h (3 Bft) 100,00 %
27.03.2023 08:06 2,0 C 1,7 C -1,1 C 94 % 1018,9 hPa 0,0 l/m 0 min 0 min 22 W/m 12,9 km/h (3 Bft) 97,87 %
27.03.2023 08:08 2,0 C 1,7 C -1,1 C 94 % 1018,9 hPa 0,0 l/m 0 min 0 min 24 W/m 16,1 km/h (3 Bft) 95,65 %
27.03.2023 08:10 2,0 C 1,7 C -1,1 C 94 % 1019,0 hPa 0,0 l/m 0 min 0 min 26 W/m 19,3 km/h (3 Bft) 97,87 %
27.03.2023 08:12 2,1 C 2,2 C -1,1 C 94 % 1019,0 hPa 0,0 l/m 0 min 0 min 30 W/m 9,7 km/h (2 Bft) 97,87 %
27.03.2023 08:14 2,1 C 2,2 C -1,1 C 94 % 1019,1 hPa 0,0 l/m 0 min 0 min 37 W/m 12,9 km/h (3 Bft) 95,74 %
27.03.2023 08:16 2,1 C 2,2 C -1,1 C 94 % 1019,0 hPa 0,0 l/m 0 min 0 min 43 W/m 19,3 km/h (3 Bft) 97,87 %
27.03.2023 08:18 2,2 C 2,2 C -1,1 C 94 % 1019,1 hPa 0,0 l/m 0 min 0 min 49 W/m 22,5 km/h (4 Bft) 97,87 %
27.03.2023 08:20 2,2 C 2,2 C -0,6 C 93 % 1019,1 hPa 0,0 l/m 0 min 0 min 49 W/m 22,5 km/h (4 Bft) 97,83 %
27.03.2023 08:22 2,2 C 2,2 C -0,6 C 93 % 1019,1 hPa 0,0 l/m 0 min 0 min 47 W/m 12,9 km/h (3 Bft) 97,87 %
27.03.2023 08:24 2,3 C 2,2 C -0,6 C 93 % 1019,1 hPa 0,0 l/m 0 min 0 min 47 W/m 9,7 km/h (2 Bft) 97,87 %
27.03.2023 08:26 2,3 C 2,2 C -0,6 C 94 % 1019,1 hPa 0,0 l/m 0 min 0 min 42 W/m 19,3 km/h (3 Bft) 95,74 %
27.03.2023 08:28 2,3 C 2,2 C -0,6 C 94 % 1019,1 hPa 0,0 l/m 0 min 0 min 44 W/m 9,7 km/h (2 Bft) 97,87 %
27.03.2023 08:30 2,4 C 2,2 C -0,6 C 94 % 1019,2 hPa 0,0 l/m 0 min 0 min 42 W/m 12,9 km/h (3 Bft) 93,62 %
27.03.2023 08:32 2,4 C 2,2 C -0,6 C 93 % 1019,2 hPa 0,0 l/m 0 min 0 min 35 W/m 16,1 km/h (3 Bft) 97,87 %
27.03.2023 08:34 2,4 C 2,2 C -0,6 C 93 % 1019,2 hPa 0,0 l/m 0 min 0 min 30 W/m 9,7 km/h (2 Bft) 97,83 %
27.03.2023 08:36 2,4 C 2,2 C -0,6 C 93 % 1019,3 hPa 0,0 l/m 0 min 0 min 32 W/m 9,7 km/h (2 Bft) 93,62 %
27.03.2023 08:38 2,4 C 2,2 C -0,6 C 93 % 1019,2 hPa 0,0 l/m 0 min 0 min 32 W/m 9,7 km/h (2 Bft) 97,87 %
27.03.2023 08:40 2,4 C 2,2 C -0,6 C 93 % 1019,1 hPa 0,0 l/m 0 min 0 min 32 W/m 6,4 km/h (2 Bft) 97,87 %
27.03.2023 08:42 2,4 C 2,2 C -0,6 C 93 % 1019,1 hPa 0,2 l/m 0 min 0 min 35 W/m 12,9 km/h (3 Bft) 91,49 %
27.03.2023 08:44 2,4 C 2,2 C -0,6 C 93 % 1019,2 hPa 0,0 l/m 0 min 0 min 37 W/m 6,4 km/h (2 Bft) 72,34 %
27.03.2023 08:46 2,5 C 2,2 C -0,6 C 93 % 1019,2 hPa 0,0 l/m 0 min 0 min 45 W/m 6,4 km/h (2 Bft) 93,62 %
27.03.2023 08:48 2,5 C 2,2 C -0,6 C 93 % 1019,2 hPa 0,0 l/m 0 min 0 min 41 W/m 9,7 km/h (2 Bft) 96,23 %
27.03.2023 08:50 2,6 C 2,2 C -0,6 C 93 % 1019,3 hPa 0,0 l/m 0 min 0 min 39 W/m 6,4 km/h (2 Bft) 97,37 %
27.03.2023 08:52 2,6 C 2,2 C -0,6 C 93 % 1019,4 hPa 0,0 l/m 0 min 0 min 38 W/m 9,7 km/h (2 Bft) 91,84 %
27.03.2023 08:54 2,6 C 2,2 C -0,6 C 93 % 1019,3 hPa 0,0 l/m 0 min 0 min 36 W/m 12,9 km/h (3 Bft) 97,87 %
27.03.2023 08:56 2,6 C 2,2 C -0,6 C 93 % 1019,5 hPa 0,0 l/m 0 min 0 min 35 W/m 16,1 km/h (3 Bft) 88,89 %
27.03.2023 08:58 2,6 C 2,8 C -0,6 C 93 % 1019,4 hPa 0,0 l/m 0 min 0 min 35 W/m 12,9 km/h (3 Bft) 95,65 %
27.03.2023 09:00 2,7 C 2,8 C -0,6 C 93 % 1019,5 hPa 0,0 l/m 0 min 0 min 37 W/m 12,9 km/h (3 Bft) 91,49 %
27.03.2023 09:02 2,7 C 2,8 C -0,6 C 93 % 1019,5 hPa 0,0 l/m 0 min 0 min 37 W/m 9,7 km/h (2 Bft) 97,87 %
27.03.2023 09:04 2,7 C 2,8 C -0,6 C 93 % 1019,6 hPa 0,0 l/m 0 min 0 min 37 W/m 12,9 km/h (3 Bft) 100,00 %
27.03.2023 09:06 2,7 C 2,8 C -0,6 C 93 % 1019,6 hPa 0,0 l/m 0 min 0 min 39 W/m 16,1 km/h (3 Bft) 98,11 %
27.03.2023 09:08 2,8 C 2,8 C -0,6 C 93 % 1019,6 hPa 0,0 l/m 0 min 0 min 39 W/m 6,4 km/h (2 Bft) 95,12 %
27.03.2023 09:10 2,8 C 2,8 C -0,6 C 93 % 1019,6 hPa 0,0 l/m 0 min 0 min 39 W/m 16,1 km/h (3 Bft) 95,74 %
27.03.2023 09:12 2,8 C 2,8 C 0,0 C 93 % 1019,6 hPa 0,0 l/m 0 min 0 min 39 W/m 12,9 km/h (3 Bft) 89,36 %
27.03.2023 09:14 2,9 C 2,8 C 0,0 C 93 % 1019,6 hPa 0,0 l/m 0 min 0 min 40 W/m 9,7 km/h (2 Bft) 87,23 %
27.03.2023 09:16 2,9 C 2,8 C 0,0 C 93 % 1019,6 hPa 0,0 l/m 0 min 0 min 40 W/m 12,9 km/h (3 Bft) 76,09 %
27.03.2023 09:18 2,9 C 2,8 C 0,0 C 93 % 1019,6 hPa 0,0 l/m 0 min 0 min 42 W/m 9,7 km/h (2 Bft) 80,85 %
27.03.2023 09:20 3,0 C 2,8 C 0,0 C 92 % 1019,8 hPa 0,0 l/m 0 min 0 min 43 W/m 19,3 km/h (3 Bft) 95,74 %
27.03.2023 09:22 3,0 C 3,3 C 0,0 C 92 % 1019,8 hPa 0,0 l/m 0 min 0 min 46 W/m 16,1 km/h (3 Bft) 97,87 %
27.03.2023 09:24 3,1 C 3,3 C 0,0 C 92 % 1019,8 hPa 0,0 l/m 0 min 0 min 69 W/m 12,9 km/h (3 Bft) 97,87 %
27.03.2023 09:26 3,1 C 3,3 C 0,0 C 92 % 1019,8 hPa 0,0 l/m 2 min 0 min 211 W/m 9,7 km/h (2 Bft) 97,87 %
27.03.2023 09:28 3,2 C 3,3 C 0,0 C 92 % 1019,8 hPa 0,0 l/m 2 min 0 min 164 W/m 12,9 km/h (3 Bft) 93,48 %
27.03.2023 09:30 3,2 C 3,3 C 0,0 C 92 % 1019,8 hPa 0,0 l/m 0 min 0 min 148 W/m 12,9 km/h (3 Bft) 93,62 %
27.03.2023 09:32 3,2 C 3,3 C 0,0 C 92 % 1019,9 hPa 0,0 l/m 0 min 0 min 134 W/m 12,9 km/h (3 Bft) 93,62 %
27.03.2023 09:34 3,3 C 3,9 C 0,0 C 92 % 1019,9 hPa 0,0 l/m 2 min 0 min 175 W/m 6,4 km/h (2 Bft) 93,62 %
27.03.2023 09:36 3,4 C 3,9 C 0,6 C 92 % 1019,9 hPa 0,0 l/m 0 min 0 min 147 W/m 12,9 km/h (3 Bft) 95,74 %
27.03.2023 09:38 3,4 C 4,4 C 0,6 C 92 % 1019,9 hPa 0,0 l/m 0 min 0 min 159 W/m 9,7 km/h (2 Bft) 95,74 %
27.03.2023 09:40 3,6 C 5,0 C 0,6 C 92 % 1020,0 hPa 0,0 l/m 0 min 0 min 125 W/m 16,1 km/h (3 Bft) 87,23 %
27.03.2023 09:42 3,7 C 5,0 C 0,6 C 91 % 1020,0 hPa 0,0 l/m 0 min 0 min 145 W/m 9,7 km/h (2 Bft) 95,65 %
27.03.2023 09:44 3,8 C 5,0 C 0,6 C 91 % 1020,0 hPa 0,0 l/m 2 min 0 min 206 W/m 16,1 km/h (3 Bft) 95,74 %
27.03.2023 09:46 3,9 C 5,0 C 0,6 C 91 % 1020,0 hPa 0,0 l/m 2 min 0 min 300 W/m 16,1 km/h (3 Bft) 93,62 %
27.03.2023 09:48 4,0 C 5,6 C 1,1 C 91 % 1020,1 hPa 0,0 l/m 2 min 0 min 338 W/m 16,1 km/h (3 Bft) 97,87 %
27.03.2023 09:50 4,1 C 5,6 C 1,1 C 91 % 1020,1 hPa 0,0 l/m 2 min 0 min 354 W/m 16,1 km/h (3 Bft) 93,62 %
27.03.2023 09:52 4,2 C 5,6 C 1,1 C 90 % 1020,1 hPa 0,0 l/m 2 min 0 min 287 W/m 12,9 km/h (3 Bft) 97,87 %
27.03.2023 09:54 4,3 C 6,1 C 1,1 C 90 % 1020,1 hPa 0,0 l/m 2 min 0 min 355 W/m 19,3 km/h (3 Bft) 97,83 %
27.03.2023 09:56 4,4 C 6,1 C 1,7 C 89 % 1020,1 hPa 0,0 l/m 2 min 0 min 241 W/m 19,3 km/h (3 Bft) 95,74 %
27.03.2023 09:58 4,4 C 6,7 C 1,7 C 89 % 1020,1 hPa 0,0 l/m 0 min 0 min 185 W/m 16,1 km/h (3 Bft) 97,87 %
27.03.2023 10:00 4,6 C 7,2 C 1,7 C 88 % 1020,2 hPa 0,0 l/m 2 min 0 min 406 W/m 16,1 km/h (3 Bft) 97,87 %
27.03.2023 10:02 4,6 C 7,2 C 1,7 C 88 % 1020,2 hPa 0,0 l/m 2 min 0 min 197 W/m 22,5 km/h (4 Bft) 97,87 %
27.03.2023 10:04 4,7 C 6,7 C 1,7 C 87 % 1020,2 hPa 0,0 l/m 0 min 0 min 117 W/m 16,1 km/h (3 Bft) 97,87 %
27.03.2023 10:06 4,7 C 7,2 C 1,7 C 87 % 1020,2 hPa 0,0 l/m 0 min 0 min 196 W/m 22,5 km/h (4 Bft) 96,15 %
27.03.2023 10:08 4,8 C 7,8 C 1,7 C 86 % 1020,1 hPa 0,0 l/m 2 min 0 min 430 W/m 16,1 km/h (3 Bft) 97,56 %
27.03.2023 10:10 4,8 C 7,2 C 1,7 C 86 % 1020,3 hPa 0,0 l/m 2 min 0 min 328 W/m 22,5 km/h (4 Bft) 100,00 %
27.03.2023 10:12 4,9 C 9,4 C 2,2 C 86 % 1020,3 hPa 0,0 l/m 2 min 0 min 339 W/m 19,3 km/h (3 Bft) 97,87 %
27.03.2023 10:14 5,0 C 10,0 C 2,2 C 86 % 1020,3 hPa 0,0 l/m 2 min 0 min 469 W/m 22,5 km/h (4 Bft) 93,62 %
27.03.2023 10:16 5,1 C 10,0 C 2,2 C 85 % 1020,3 hPa 0,0 l/m 2 min 0 min 438 W/m 25,7 km/h (4 Bft) 93,62 %
27.03.2023 10:18 5,2 C 10,0 C 2,2 C 85 % 1020,3 hPa 0,0 l/m 2 min 0 min 399 W/m 19,3 km/h (3 Bft) 93,62 %
27.03.2023 10:20 5,3 C 11,1 C 2,2 C 84 % 1020,4 hPa 0,0 l/m 2 min 0 min 463 W/m 29,0 km/h (5 Bft) 93,48 %
27.03.2023 10:22 5,3 C 11,7 C 2,8 C 83 % 1020,3 hPa 0,0 l/m 2 min 0 min 470 W/m 19,3 km/h (3 Bft) 82,98 %
27.03.2023 10:24 5,6 C 11,7 C 2,8 C 83 % 1020,4 hPa 0,0 l/m 2 min 0 min 396 W/m 12,9 km/h (3 Bft) 97,87 %
27.03.2023 10:26 5,6 C 11,1 C 2,8 C 82 % 1020,4 hPa 0,0 l/m 2 min 0 min 455 W/m 16,1 km/h (3 Bft) 97,14 %
27.03.2023 10:28 5,7 C 11,7 C 2,8 C 82 % 1020,5 hPa 0,0 l/m 2 min 0 min 485 W/m 19,3 km/h (3 Bft) 89,83 %
27.03.2023 10:30 5,8 C 11,7 C 2,8 C 82 % 1020,5 hPa 0,0 l/m 2 min 0 min 499 W/m 16,1 km/h (3 Bft) 80,00 %
27.03.2023 10:32 5,9 C 11,7 C 2,8 C 81 % 1020,4 hPa 0,0 l/m 2 min 0 min 496 W/m 22,5 km/h (4 Bft) 91,53 %
27.03.2023 10:34 5,9 C 11,1 C 2,8 C 80 % 1020,5 hPa 0,0 l/m 2 min 0 min 446 W/m 25,7 km/h (4 Bft) 97,14 %
27.03.2023 10:36 6,0 C 11,1 C 3,3 C 80 % 1020,5 hPa 0,0 l/m 0 min 0 min 188 W/m 22,5 km/h (4 Bft) 85,11 %
27.03.2023 10:38 6,0 C 9,4 C 2,8 C 79 % 1020,5 hPa 0,0 l/m 0 min 0 min 182 W/m 16,1 km/h (3 Bft) 100,00 %
27.03.2023 10:40 6,0 C 8,9 C 2,8 C 79 % 1020,6 hPa 0,0 l/m 0 min 0 min 165 W/m 25,7 km/h (4 Bft) 93,62 %
27.03.2023 10:42 6,0 C 8,3 C 2,8 C 78 % 1020,6 hPa 0,0 l/m 0 min 0 min 228 W/m 25,7 km/h (4 Bft) 96,61 %
27.03.2023 10:44 6,0 C 7,8 C 2,8 C 78 % 1020,6 hPa 0,0 l/m 2 min 0 min 270 W/m 32,2 km/h (5 Bft) 85,11 %
27.03.2023 10:46 5,9 C 8,3 C 2,8 C 77 % 1020,6 hPa 0,0 l/m 2 min 0 min 324 W/m 32,2 km/h (5 Bft) 77,14 %
27.03.2023 10:48 5,9 C 8,9 C 3,3 C 77 % 1020,6 hPa 0,0 l/m 2 min 0 min 364 W/m 22,5 km/h (4 Bft) 57,45 %
27.03.2023 10:50 5,9 C 7,8 C 2,8 C 76 % 1020,7 hPa 0,0 l/m 2 min 0 min 278 W/m 25,7 km/h (4 Bft) 91,30 %
27.03.2023 10:52 5,8 C 7,2 C 2,8 C 76 % 1020,7 hPa 0,0 l/m 0 min 0 min 218 W/m 19,3 km/h (3 Bft) 55,56 %
27.03.2023 10:54 5,8 C 7,8 C 3,3 C 77 % 1020,7 hPa 0,0 l/m 2 min 0 min 510 W/m 25,7 km/h (4 Bft) 95,56 %
27.03.2023 10:56 5,9 C 7,8 C 3,3 C 77 % 1020,7 hPa 0,0 l/m 2 min 0 min 328 W/m 22,5 km/h (4 Bft) 100,00 %
27.03.2023 10:58 5,9 C 7,8 C 3,3 C 77 % 1020,8 hPa 0,0 l/m 0 min 0 min 201 W/m 16,1 km/h (3 Bft) 97,87 %
27.03.2023 11:00 5,8 C 6,7 C 3,3 C 77 % 1020,8 hPa 0,0 l/m 0 min 0 min 175 W/m 19,3 km/h (3 Bft) 93,62 %
27.03.2023 11:02 5,8 C 7,2 C 3,3 C 78 % 1020,8 hPa 0,0 l/m 0 min 0 min 236 W/m 16,1 km/h (3 Bft) 97,87 %
27.03.2023 11:04 5,9 C 7,2 C 3,3 C 78 % 1020,9 hPa 0,0 l/m 2 min 0 min 257 W/m 19,3 km/h (3 Bft) 97,87 %
27.03.2023 11:06 5,9 C 6,7 C 2,8 C 78 % 1020,9 hPa 0,0 l/m 0 min 0 min 201 W/m 19,3 km/h (3 Bft) 94,92 %
27.03.2023 11:08 5,9 C 6,7 C 2,8 C 78 % 1020,9 hPa 0,0 l/m 0 min 0 min 188 W/m 19,3 km/h (3 Bft) 94,29 %
27.03.2023 11:10 5,8 C 6,1 C 2,2 C 78 % 1020,9 hPa 0,0 l/m 0 min 0 min 165 W/m 19,3 km/h (3 Bft) 78,72 %
27.03.2023 11:12 5,8 C 6,1 C 2,2 C 78 % 1020,9 hPa 0,0 l/m 0 min 0 min 167 W/m 22,5 km/h (4 Bft) 68,09 %
27.03.2023 11:14 5,7 C 5,6 C 2,2 C 78 % 1020,9 hPa 0,0 l/m 0 min 0 min 172 W/m 25,7 km/h (4 Bft) 61,70 %
27.03.2023 11:16 5,6 C 6,1 C 2,2 C 78 % 1020,9 hPa 0,0 l/m 0 min 0 min 191 W/m 16,1 km/h (3 Bft) 68,09 %
27.03.2023 11:18 5,6 C 6,1 C 2,2 C 78 % 1020,9 hPa 0,0 l/m 0 min 0 min 206 W/m 12,9 km/h (3 Bft) 73,91 %
27.03.2023 11:20 5,6 C 6,1 C 2,2 C 78 % 1021,0 hPa 0,0 l/m 0 min 0 min 187 W/m 16,1 km/h (3 Bft) 70,21 %
27.03.2023 11:22 5,6 C 6,1 C 2,2 C 78 % 1020,9 hPa 0,0 l/m 0 min 0 min 192 W/m 19,3 km/h (3 Bft) 78,72 %
27.03.2023 11:24 5,7 C 6,1 C 2,2 C 78 % 1020,9 hPa 0,0 l/m 0 min 0 min 174 W/m 32,2 km/h (5 Bft) 89,36 %
27.03.2023 11:26 5,7 C 6,1 C 2,2 C 77 % 1020,9 hPa 0,0 l/m 0 min 0 min 151 W/m 32,2 km/h (5 Bft) 74,47 %
27.03.2023 11:28 5,6 C 5,6 C 2,2 C 77 % 1021,0 hPa 0,0 l/m 0 min 0 min 134 W/m 22,5 km/h (4 Bft) 80,85 %
27.03.2023 11:30 5,6 C 5,6 C 2,2 C 77 % 1021,0 hPa 0,0 l/m 0 min 0 min 128 W/m 22,5 km/h (4 Bft) 73,91 %
27.03.2023 11:32 5,6 C 5,6 C 2,2 C 76 % 1021,0 hPa 0,0 l/m 0 min 0 min 139 W/m 16,1 km/h (3 Bft) 80,85 %
27.03.2023 11:34 5,6 C 5,6 C 2,2 C 76 % 1021,0 hPa 0,0 l/m 0 min 0 min 174 W/m 16,1 km/h (3 Bft) 65,96 %
27.03.2023 11:36 5,6 C 6,1 C 2,2 C 76 % 1021,0 hPa 0,0 l/m 0 min 0 min 224 W/m 19,3 km/h (3 Bft) 65,96 %
27.03.2023 11:38 5,6 C 7,8 C 3,3 C 76 % 1021,0 hPa 0,0 l/m 0 min 0 min 229 W/m 19,3 km/h (3 Bft) 72,34 %
27.03.2023 11:40 5,7 C 9,4 C 4,4 C 76 % 1021,0 hPa 0,0 l/m 0 min 0 min 229 W/m 22,5 km/h (4 Bft) 68,09 %
27.03.2023 11:42 5,9 C 11,1 C 5,6 C 76 % 1021,0 hPa 0,0 l/m 2 min 0 min 391 W/m 19,3 km/h (3 Bft) 61,70 %
27.03.2023 11:44 6,1 C 12,8 C 7,2 C 75 % 1021,0 hPa 0,0 l/m 2 min 0 min 593 W/m 19,3 km/h (3 Bft) 63,04 %
27.03.2023 11:46 6,3 C 12,8 C 7,2 C 75 % 1021,0 hPa 0,0 l/m 2 min 0 min 742 W/m 19,3 km/h (3 Bft) 72,34 %
27.03.2023 11:48 6,5 C 10,0 C 6,1 C 73 % 1021,0 hPa 0,0 l/m 2 min 0 min 316 W/m 12,9 km/h (3 Bft) 74,47 %
27.03.2023 11:50 6,6 C 8,9 C 5,0 C 73 % 1021,0 hPa 0,0 l/m 0 min 0 min 116 W/m 16,1 km/h (3 Bft) 93,62 %
27.03.2023 11:52 6,5 C 7,2 C 3,9 C 72 % 1021,1 hPa 0,0 l/m 0 min 0 min 111 W/m 22,5 km/h (4 Bft) 91,49 %
27.03.2023 11:54 6,5 C 6,7 C 3,3 C 72 % 1021,1 hPa 0,0 l/m 0 min 0 min 107 W/m 16,1 km/h (3 Bft) 91,49 %
27.03.2023 11:56 6,4 C 6,1 C 2,8 C 73 % 1021,1 hPa 0,0 l/m 0 min 0 min 120 W/m 25,7 km/h (4 Bft) 93,62 %
27.03.2023 11:58 6,3 C 7,8 C 3,3 C 72 % 1021,1 hPa 0,0 l/m 0 min 0 min 151 W/m 22,5 km/h (4 Bft) 89,36 %
27.03.2023 12:00 6,4 C 10,6 C 6,1 C 72 % 1021,1 hPa 0,0 l/m 2 min 0 min 665 W/m 25,7 km/h (4 Bft) 86,96 %
27.03.2023 12:02 6,5 C 10,6 C 6,1 C 72 % 1021,2 hPa 0,0 l/m 2 min 0 min 616 W/m 19,3 km/h (3 Bft) 95,74 %
27.03.2023 12:04 6,7 C 9,4 C 5,6 C 72 % 1021,1 hPa 0,0 l/m 2 min 0 min 518 W/m 12,9 km/h (3 Bft) 87,50 %
27.03.2023 12:07 6,8 C 8,3 C 4,4 C 72 % 1021,2 hPa 0,0 l/m 0 min 0 min 178 W/m 19,3 km/h (3 Bft) 92,68 %
27.03.2023 12:08 6,8 C 7,8 C 4,4 C 72 % 1021,2 hPa 0,0 l/m 0 min 0 min 160 W/m 19,3 km/h (3 Bft) 91,67 %
27.03.2023 12:12 6,6 C 6,7 C 3,3 C 71 % 1021,2 hPa 0,0 l/m 0 min 0 min 189 W/m 16,1 km/h (3 Bft) 91,67 %
27.03.2023 12:14 6,5 C 7,2 C 3,3 C 72 % 1021,2 hPa 0,0 l/m 0 min 0 min 221 W/m 22,5 km/h (4 Bft) 94,55 %
27.03.2023 12:16 6,5 C 7,2 C 3,3 C 71 % 1021,3 hPa 0,0 l/m 0 min 0 min 191 W/m 22,5 km/h (4 Bft) 93,62 %
27.03.2023 12:18 6,5 C 7,2 C 3,3 C 71 % 1021,2 hPa 0,0 l/m 0 min 0 min 179 W/m 16,1 km/h (3 Bft) 95,74 %
27.03.2023 12:20 6,5 C 6,7 C 3,3 C 71 % 1021,2 hPa 0,0 l/m 0 min 0 min 167 W/m 19,3 km/h (3 Bft) 91,49 %
27.03.2023 12:22 6,4 C 6,7 C 2,8 C 70 % 1021,2 hPa 0,0 l/m 0 min 0 min 169 W/m 16,1 km/h (3 Bft) 95,74 %
27.03.2023 12:24 6,4 C 8,3 C 3,9 C 70 % 1021,2 hPa 0,0 l/m 0 min 0 min 200 W/m 6,4 km/h (2 Bft) 95,65 %
27.03.2023 12:26 6,6 C 11,7 C 6,1 C 71 % 1021,2 hPa 0,0 l/m 2 min 0 min 672 W/m 12,9 km/h (3 Bft) 93,62 %
27.03.2023 12:28 6,8 C 14,4 C 8,3 C 72 % 1021,2 hPa 0,0 l/m 2 min 0 min 830 W/m 19,3 km/h (3 Bft) 95,74 %
27.03.2023 12:30 7,1 C 14,4 C 8,3 C 71 % 1021,2 hPa 0,0 l/m 2 min 0 min 867 W/m 12,9 km/h (3 Bft) 93,62 %
27.03.2023 12:32 7,3 C 13,3 C 8,3 C 70 % 1021,2 hPa 0,0 l/m 2 min 0 min 884 W/m 22,5 km/h (4 Bft) 87,23 %
27.03.2023 12:34 7,5 C 11,1 C 7,2 C 71 % 1021,3 hPa 0,0 l/m 2 min 0 min 454 W/m 19,3 km/h (3 Bft) 93,62 %
27.03.2023 12:36 7,5 C 8,9 C 5,6 C 71 % 1021,2 hPa 0,0 l/m 0 min 0 min 225 W/m 25,7 km/h (4 Bft) 93,48 %
27.03.2023 12:38 7,3 C 9,4 C 5,6 C 71 % 1021,3 hPa 0,0 l/m 0 min 0 min 250 W/m 25,7 km/h (4 Bft) 93,62 %
27.03.2023 12:40 7,2 C 8,3 C 5,0 C 70 % 1021,2 hPa 0,0 l/m 0 min 0 min 235 W/m 19,3 km/h (3 Bft) 93,62 %
27.03.2023 12:42 7,0 C 7,2 C 3,9 C 70 % 1021,2 hPa 0,0 l/m 0 min 0 min 166 W/m 19,3 km/h (3 Bft) 93,62 %
27.03.2023 12:44 6,8 C 6,7 C 3,3 C 70 % 1021,3 hPa 0,0 l/m 0 min 0 min 149 W/m 19,3 km/h (3 Bft) 93,62 %
27.03.2023 12:46 6,7 C 6,7 C 3,3 C 70 % 1021,2 hPa 0,0 l/m 0 min 0 min 155 W/m 16,1 km/h (3 Bft) 97,87 %
27.03.2023 12:48 6,6 C 6,7 C 3,3 C 70 % 1021,3 hPa 0,0 l/m 0 min 0 min 170 W/m 19,3 km/h (3 Bft) 95,74 %
27.03.2023 12:50 6,6 C 7,8 C 3,3 C 71 % 1021,3 hPa 0,0 l/m 0 min 0 min 209 W/m 22,5 km/h (4 Bft) 95,65 %
27.03.2023 12:52 6,7 C 8,3 C 3,9 C 72 % 1021,3 hPa 0,0 l/m 0 min 0 min 211 W/m 16,1 km/h (3 Bft) 100,00 %
27.03.2023 12:54 7,1 C 10,0 C 5,6 C 73 % 1021,2 hPa 0,0 l/m 0 min 0 min 211 W/m 35,4 km/h (5 Bft) 95,74 %
27.03.2023 12:56 7,3 C 10,0 C 5,6 C 72 % 1021,3 hPa 0,0 l/m 0 min 0 min 211 W/m 22,5 km/h (4 Bft) 97,87 %
27.03.2023 12:58 7,5 C 9,4 C 5,0 C 71 % 1021,4 hPa 0,0 l/m 0 min 0 min 260 W/m 29,0 km/h (5 Bft) 95,74 %
27.03.2023 13:00 7,6 C 8,3 C 4,4 C 69 % 1021,4 hPa 0,0 l/m 0 min 0 min 302 W/m 35,4 km/h (5 Bft) 93,62 %
27.03.2023 13:02 7,3 C 7,2 C 3,3 C 70 % 1021,7 hPa 0,0 l/m 0 min 0 min 213 W/m 38,6 km/h (5 Bft) 91,49 %
27.03.2023 13:04 6,8 C 6,1 C 2,8 C 73 % 1021,7 hPa 0,0 l/m 0 min 0 min 152 W/m 38,6 km/h (5 Bft) 95,65 %
27.03.2023 13:06 6,3 C 5,6 C 1,7 C 75 % 1021,9 hPa 0,0 l/m 0 min 0 min 133 W/m 32,2 km/h (5 Bft) 91,49 %
27.03.2023 13:08 5,9 C 5,0 C 1,1 C 77 % 1021,9 hPa 0,0 l/m 0 min 0 min 130 W/m 45,1 km/h (6 Bft) 97,87 %
27.03.2023 13:10 5,6 C 4,4 C 1,1 C 78 % 1021,9 hPa 0,0 l/m 0 min 0 min 117 W/m 35,4 km/h (5 Bft) 95,74 %
27.03.2023 13:12 5,3 C 4,4 C 0,6 C 79 % 1022,0 hPa 0,0 l/m 0 min 0 min 107 W/m 35,4 km/h (5 Bft) 91,49 %
27.03.2023 13:14 5,0 C 4,4 C 0,6 C 81 % 1022,0 hPa 0,0 l/m 0 min 2 min 115 W/m 32,2 km/h (5 Bft) 95,74 %
27.03.2023 13:16 4,9 C 4,4 C 0,6 C 82 % 1022,1 hPa 0,0 l/m 0 min 0 min 142 W/m 25,7 km/h (4 Bft) 97,87 %
27.03.2023 13:18 4,7 C 4,4 C 0,6 C 83 % 1022,0 hPa 0,0 l/m 0 min 2 min 164 W/m 25,7 km/h (4 Bft) 97,83 %
27.03.2023 13:20 4,6 C 5,0 C 0,6 C 84 % 1022,0 hPa 0,0 l/m 0 min 0 min 195 W/m 22,5 km/h (4 Bft) 97,87 %
27.03.2023 13:22 4,6 C 5,6 C 1,1 C 85 % 1022,1 hPa 0,0 l/m 0 min 0 min 240 W/m 16,1 km/h (3 Bft) 95,74 %
27.03.2023 13:24 4,7 C 6,7 C 1,7 C 85 % 1022,0 hPa 0,0 l/m 2 min 0 min 426 W/m 9,7 km/h (2 Bft) 93,62 %
27.03.2023 13:26 4,8 C 7,8 C 2,2 C 86 % 1022,1 hPa 0,0 l/m 2 min 0 min 787 W/m 12,9 km/h (3 Bft) 95,74 %
27.03.2023 13:28 4,9 C 8,9 C 2,8 C 87 % 1022,1 hPa 0,0 l/m 2 min 0 min 773 W/m 25,7 km/h (4 Bft) 97,87 %
27.03.2023 13:30 5,2 C 9,4 C 3,3 C 87 % 1022,1 hPa 0,0 l/m 2 min 0 min 771 W/m 19,3 km/h (3 Bft) 97,87 %
27.03.2023 13:32 5,3 C 9,4 C 3,3 C 87 % 1022,1 hPa 0,0 l/m 2 min 0 min 771 W/m 19,3 km/h (3 Bft) 95,74 %
27.03.2023 13:34 5,5 C 9,4 C 3,3 C 86 % 1022,1 hPa 0,0 l/m 2 min 0 min 769 W/m 16,1 km/h (3 Bft) 95,65 %
27.03.2023 13:36 5,7 C 10,6 C 3,3 C 85 % 1022,1 hPa 0,0 l/m 2 min 0 min 764 W/m 12,9 km/h (3 Bft) 91,49 %
27.03.2023 13:38 5,9 C 11,7 C 3,9 C 84 % 1022,1 hPa 0,0 l/m 2 min 0 min 759 W/m 12,9 km/h (3 Bft) 97,87 %
27.03.2023 13:40 6,1 C 11,7 C 3,9 C 84 % 1022,1 hPa 0,0 l/m 2 min 0 min 758 W/m 16,1 km/h (3 Bft) 95,74 %
27.03.2023 13:42 6,3 C 12,2 C 3,9 C 83 % 1022,0 hPa 0,0 l/m 2 min 0 min 755 W/m 19,3 km/h (3 Bft) 89,36 %
27.03.2023 13:44 6,4 C 12,8 C 3,9 C 82 % 1022,0 hPa 0,0 l/m 2 min 0 min 753 W/m 12,9 km/h (3 Bft) 97,87 %
27.03.2023 13:46 6,6 C 13,3 C 3,3 C 81 % 1022,0 hPa 0,0 l/m 2 min 0 min 756 W/m 12,9 km/h (3 Bft) 97,87 %
27.03.2023 13:48 6,8 C 13,9 C 3,3 C 80 % 1022,0 hPa 0,0 l/m 2 min 0 min 755 W/m 12,9 km/h (3 Bft) 95,65 %
27.03.2023 13:50 6,9 C 14,4 C 3,3 C 79 % 1022,0 hPa 0,0 l/m 2 min 0 min 751 W/m 9,7 km/h (2 Bft) 97,87 %
27.03.2023 13:52 7,1 C 15,0 C 3,3 C 79 % 1022,1 hPa 0,0 l/m 2 min 0 min 752 W/m 12,9 km/h (3 Bft) 100,00 %
27.03.2023 13:54 7,2 C 15,6 C 3,9 C 78 % 1022,1 hPa 0,0 l/m 2 min 0 min 753 W/m 12,9 km/h (3 Bft) 100,00 %
27.03.2023 13:56 7,4 C 15,0 C 3,9 C 78 % 1022,1 hPa 0,0 l/m 2 min 0 min 751 W/m 12,9 km/h (3 Bft) 100,00 %
27.03.2023 13:58 7,6 C 15,6 C 3,9 C 77 % 1022,1 hPa 0,0 l/m 2 min 0 min 751 W/m 12,9 km/h (3 Bft) 100,00 %
27.03.2023 14:00 7,7 C 15,0 C 3,9 C 76 % 1022,1 hPa 0,0 l/m 2 min 0 min 755 W/m 16,1 km/h (3 Bft) 100,00 %
27.03.2023 14:02 7,8 C 16,7 C 3,9 C 75 % 1022,1 hPa 0,0 l/m 2 min 0 min 773 W/m 16,1 km/h (3 Bft) 97,83 %
27.03.2023 14:04 7,8 C 16,7 C 3,9 C 75 % 1022,0 hPa 0,0 l/m 2 min 0 min 778 W/m 12,9 km/h (3 Bft) 97,87 %
27.03.2023 14:06 7,9 C 16,1 C 4,4 C 75 % 1022,0 hPa 0,0 l/m 2 min 0 min 790 W/m 16,1 km/h (3 Bft) 100,00 %
27.03.2023 14:08 8,1 C 15,6 C 4,4 C 74 % 1022,0 hPa 0,0 l/m 2 min 0 min 784 W/m 12,9 km/h (3 Bft) 97,87 %
27.03.2023 14:10 8,1 C 15,6 C 4,4 C 72 % 1022,0 hPa 0,0 l/m 2 min 0 min 806 W/m 19,3 km/h (3 Bft) 100,00 %
27.03.2023 14:12 8,2 C 15,6 C 4,4 C 72 % 1022,0 hPa 0,0 l/m 2 min 0 min 803 W/m 12,9 km/h (3 Bft) 100,00 %
27.03.2023 14:14 8,4 C 15,0 C 4,4 C 72 % 1022,0 hPa 0,0 l/m 2 min 0 min 833 W/m 16,1 km/h (3 Bft) 100,00 %
27.03.2023 14:16 8,5 C 15,6 C 4,4 C 71 % 1022,0 hPa 0,0 l/m 2 min 0 min 665 W/m 16,1 km/h (3 Bft) 100,00 %
27.03.2023 14:18 8,6 C 14,4 C 5,0 C 71 % 1022,1 hPa 0,0 l/m 2 min 0 min 664 W/m 16,1 km/h (3 Bft) 100,00 %
27.03.2023 14:20 8,6 C 12,2 C 5,0 C 70 % 1022,1 hPa 0,0 l/m 2 min 0 min 790 W/m 25,7 km/h (4 Bft) 100,00 %
27.03.2023 14:22 8,6 C 11,1 C 5,0 C 71 % 1022,3 hPa 0,0 l/m 0 min 2 min 196 W/m 22,5 km/h (4 Bft) 97,87 %
27.03.2023 14:24 8,4 C 9,4 C 4,4 C 71 % 1022,4 hPa 0,0 l/m 0 min 0 min 97 W/m 29,0 km/h (5 Bft) 100,00 %
27.03.2023 14:26 8,0 C 7,2 C 3,3 C 72 % 1022,5 hPa 0,0 l/m 0 min 0 min 58 W/m 9,7 km/h (2 Bft) 100,00 %
27.03.2023 14:28 7,7 C 6,7 C 2,8 C 74 % 1022,4 hPa 0,0 l/m 0 min 0 min 48 W/m 22,5 km/h (4 Bft) 100,00 %
27.03.2023 14:30 7,4 C 6,1 C 2,2 C 75 % 1022,4 hPa 0,0 l/m 0 min 2 min 48 W/m 22,5 km/h (4 Bft) 97,87 %
27.03.2023 14:32 7,1 C 5,6 C 1,7 C 76 % 1022,3 hPa 0,0 l/m 0 min 2 min 82 W/m 12,9 km/h (3 Bft) 100,00 %
27.03.2023 14:34 6,7 C 5,6 C 1,1 C 76 % 1022,3 hPa 0,0 l/m 0 min 2 min 105 W/m 16,1 km/h (3 Bft) 100,00 %
27.03.2023 14:36 6,4 C 5,0 C 1,1 C 78 % 1022,3 hPa 0,0 l/m 0 min 0 min 114 W/m 12,9 km/h (3 Bft) 97,87 %
27.03.2023 14:38 6,1 C 5,0 C 1,1 C 79 % 1022,2 hPa 0,0 l/m 0 min 0 min 80 W/m 12,9 km/h (3 Bft) 100,00 %
27.03.2023 14:40 5,8 C 5,0 C 1,1 C 80 % 1022,3 hPa 0,0 l/m 0 min 0 min 66 W/m 9,7 km/h (2 Bft) 97,87 %
27.03.2023 14:42 5,6 C 5,0 C 1,1 C 80 % 1022,3 hPa 0,0 l/m 0 min 0 min 69 W/m 6,4 km/h (2 Bft) 95,74 %
27.03.2023 14:44 5,6 C 8,3 C 1,1 C 82 % 1022,3 hPa 0,0 l/m 0 min 0 min 281 W/m 16,1 km/h (3 Bft) 95,74 %
27.03.2023 14:46 5,6 C 9,4 C 1,7 C 83 % 1022,3 hPa 0,0 l/m 2 min 0 min 738 W/m 12,9 km/h (3 Bft) 97,83 %
27.03.2023 14:48 5,6 C 9,4 C 1,7 C 83 % 1022,3 hPa 0,0 l/m 0 min 0 min 123 W/m 12,9 km/h (3 Bft) 97,87 %
27.03.2023 14:50 5,7 C 11,7 C 2,2 C 84 % 1022,3 hPa 0,0 l/m 2 min 0 min 579 W/m 12,9 km/h (3 Bft) 97,87 %
27.03.2023 14:52 5,8 C 10,0 C 2,2 C 84 % 1022,3 hPa 0,0 l/m 2 min 0 min 437 W/m 12,9 km/h (3 Bft) 93,62 %
27.03.2023 14:54 5,9 C 8,3 C 2,2 C 83 % 1022,4 hPa 0,0 l/m 0 min 0 min 73 W/m 16,1 km/h (3 Bft) 97,87 %
27.03.2023 14:56 5,9 C 7,2 C 2,2 C 83 % 1022,4 hPa 0,0 l/m 0 min 0 min 63 W/m 22,5 km/h (4 Bft) 97,87 %
27.03.2023 14:58 6,0 C 6,7 C 2,2 C 83 % 1022,4 hPa 0,2 l/m 0 min 0 min 77 W/m 9,7 km/h (2 Bft) 97,87 %
27.03.2023 15:00 6,0 C 8,3 C 2,2 C 83 % 1022,3 hPa 0,0 l/m 0 min 0 min 105 W/m 12,9 km/h (3 Bft) 95,65 %
27.03.2023 15:02 6,1 C 8,3 C 2,2 C 84 % 1022,3 hPa 0,0 l/m 0 min 0 min 105 W/m 12,9 km/h (3 Bft) 91,49 %
27.03.2023 15:04 6,2 C 7,8 C 2,8 C 84 % 1022,4 hPa 0,0 l/m 0 min 0 min 104 W/m 12,9 km/h (3 Bft) 97,87 %
27.03.2023 15:06 6,2 C 7,2 C 2,8 C 82 % 1022,3 hPa 0,0 l/m 0 min 0 min 71 W/m 19,3 km/h (3 Bft) 95,74 %
27.03.2023 15:08 6,2 C 8,3 C 2,8 C 82 % 1022,3 hPa 0,0 l/m 0 min 0 min 299 W/m 12,9 km/h (3 Bft) 95,74 %
27.03.2023 15:10 6,4 C 8,9 C 2,8 C 80 % 1022,3 hPa 0,0 l/m 2 min 0 min 685 W/m 19,3 km/h (3 Bft) 97,87 %
27.03.2023 15:12 6,6 C 11,1 C 3,3 C 76 % 1022,2 hPa 0,2 l/m 2 min 0 min 694 W/m 32,2 km/h (5 Bft) 95,74 %
27.03.2023 15:14 6,8 C 8,9 C 3,3 C 71 % 1022,2 hPa 0,0 l/m 2 min 0 min 500 W/m 25,7 km/h (4 Bft) 95,65 %
27.03.2023 15:16 7,0 C 10,0 C 3,3 C 69 % 1022,2 hPa 0,0 l/m 2 min 0 min 365 W/m 25,7 km/h (4 Bft) 97,87 %
27.03.2023 15:18 7,2 C 10,6 C 3,3 C 68 % 1022,2 hPa 0,0 l/m 2 min 0 min 682 W/m 22,5 km/h (4 Bft) 97,87 %
27.03.2023 15:20 7,4 C 10,6 C 3,9 C 68 % 1022,2 hPa 0,0 l/m 2 min 0 min 680 W/m 19,3 km/h (3 Bft) 95,74 %
27.03.2023 15:22 7,7 C 11,1 C 3,9 C 68 % 1022,2 hPa 0,0 l/m 2 min 0 min 679 W/m 45,1 km/h (6 Bft) 95,74 %
27.03.2023 15:24 8,0 C 11,7 C 3,9 C 67 % 1022,3 hPa 0,2 l/m 2 min 0 min 685 W/m 25,7 km/h (4 Bft) 95,74 %
27.03.2023 15:26 8,1 C 11,7 C 4,4 C 65 % 1022,2 hPa 0,0 l/m 2 min 0 min 700 W/m 22,5 km/h (4 Bft) 95,65 %
27.03.2023 15:28 8,3 C 11,7 C 4,4 C 65 % 1022,2 hPa 0,0 l/m 2 min 0 min 746 W/m 25,7 km/h (4 Bft) 93,62 %
27.03.2023 15:30 8,5 C 12,8 C 4,4 C 66 % 1022,2 hPa 0,0 l/m 2 min 0 min 802 W/m 22,5 km/h (4 Bft) 95,74 %
27.03.2023 15:32 8,7 C 12,2 C 5,0 C 66 % 1022,2 hPa 0,0 l/m 2 min 0 min 598 W/m 32,2 km/h (5 Bft) 95,74 %
27.03.2023 15:34 8,8 C 12,2 C 5,0 C 65 % 1022,3 hPa 0,0 l/m 2 min 0 min 595 W/m 25,7 km/h (4 Bft) 95,74 %
27.03.2023 15:36 8,9 C 12,2 C 5,0 C 65 % 1022,2 hPa 0,0 l/m 2 min 0 min 593 W/m 19,3 km/h (3 Bft) 93,62 %
27.03.2023 15:38 9,0 C 10,6 C 5,0 C 65 % 1022,3 hPa 0,0 l/m 2 min 0 min 660 W/m 19,3 km/h (3 Bft) 95,74 %
27.03.2023 15:40 8,8 C 8,9 C 4,4 C 63 % 1022,4 hPa 0,0 l/m 0 min 0 min 217 W/m 32,2 km/h (5 Bft) 97,87 %
27.03.2023 15:42 8,6 C 8,3 C 3,9 C 65 % 1022,5 hPa 0,0 l/m 0 min 0 min 133 W/m 29,0 km/h (5 Bft) 97,83 %
27.03.2023 15:44 8,3 C 7,8 C 3,9 C 66 % 1022,5 hPa 0,0 l/m 0 min 0 min 99 W/m 29,0 km/h (5 Bft) 95,74 %
27.03.2023 15:46 7,9 C 7,2 C 3,3 C 65 % 1022,5 hPa 0,0 l/m 0 min 0 min 115 W/m 29,0 km/h (5 Bft) 97,87 %
27.03.2023 15:48 7,7 C 7,2 C 3,3 C 66 % 1022,6 hPa 0,0 l/m 0 min 0 min 146 W/m 25,7 km/h (4 Bft) 95,74 %
27.03.2023 15:50 7,6 C 7,2 C 3,3 C 66 % 1022,7 hPa 0,0 l/m 0 min 0 min 176 W/m 41,8 km/h (6 Bft) 95,74 %
27.03.2023 15:52 7,4 C 7,8 C 3,3 C 67 % 1022,8 hPa 0,0 l/m 0 min 0 min 195 W/m 41,8 km/h (6 Bft) 95,74 %
27.03.2023 15:54 7,3 C 7,8 C 2,8 C 66 % 1022,9 hPa 0,0 l/m 0 min 0 min 197 W/m 35,4 km/h (5 Bft) 97,87 %
27.03.2023 15:56 7,1 C 6,7 C 2,8 C 67 % 1022,8 hPa 0,0 l/m 0 min 0 min 192 W/m 38,6 km/h (5 Bft) 89,13 %
27.03.2023 15:58 6,8 C 6,7 C 2,2 C 67 % 1022,9 hPa 0,0 l/m 0 min 0 min 186 W/m 48,3 km/h (6 Bft) 97,87 %
27.03.2023 16:00 6,6 C 6,1 C 2,2 C 69 % 1022,9 hPa 0,0 l/m 0 min 0 min 199 W/m 45,1 km/h (6 Bft) 95,74 %
27.03.2023 16:02 6,4 C 6,1 C 2,2 C 70 % 1023,0 hPa 0,0 l/m 0 min 0 min 190 W/m 29,0 km/h (5 Bft) 87,23 %
27.03.2023 16:04 6,2 C 5,6 C 2,2 C 72 % 1023,0 hPa 0,0 l/m 0 min 2 min 154 W/m 32,2 km/h (5 Bft) 95,74 %
27.03.2023 16:06 6,0 C 5,6 C 1,7 C 74 % 1022,9 hPa 0,0 l/m 0 min 2 min 117 W/m 32,2 km/h (5 Bft) 91,49 %
27.03.2023 16:08 5,8 C 5,0 C 1,1 C 74 % 1022,9 hPa 0,0 l/m 0 min 2 min 108 W/m 32,2 km/h (5 Bft) 93,48 %
27.03.2023 16:10 5,6 C 5,0 C 1,1 C 75 % 1022,9 hPa 0,0 l/m 0 min 2 min 134 W/m 19,3 km/h (3 Bft) 97,87 %
27.03.2023 16:12 5,5 C 6,1 C 1,1 C 78 % 1022,8 hPa 0,0 l/m 0 min 2 min 174 W/m 19,3 km/h (3 Bft) 100,00 %
27.03.2023 16:14 5,6 C 7,8 C 1,7 C 79 % 1022,8 hPa 0,0 l/m 2 min 0 min 554 W/m 16,1 km/h (3 Bft) 97,87 %
27.03.2023 16:16 5,7 C 8,3 C 2,2 C 80 % 1022,8 hPa 0,0 l/m 2 min 0 min 587 W/m 19,3 km/h (3 Bft) 97,87 %
27.03.2023 16:18 5,9 C 10,0 C 2,8 C 81 % 1022,9 hPa 0,0 l/m 2 min 0 min 576 W/m 19,3 km/h (3 Bft) 100,00 %
27.03.2023 16:20 6,1 C 10,0 C 2,8 C 81 % 1022,8 hPa 0,0 l/m 2 min 0 min 586 W/m 22,5 km/h (4 Bft) 95,74 %
27.03.2023 16:22 6,3 C 9,4 C 2,8 C 80 % 1022,9 hPa 0,0 l/m 2 min 0 min 603 W/m 29,0 km/h (5 Bft) 97,87 %
27.03.2023 16:24 6,4 C 8,9 C 2,8 C 79 % 1022,9 hPa 0,0 l/m 2 min 0 min 587 W/m 32,2 km/h (5 Bft) 95,65 %
27.03.2023 16:26 6,5 C 8,3 C 2,8 C 79 % 1022,8 hPa 0,0 l/m 2 min 0 min 395 W/m 29,0 km/h (5 Bft) 93,62 %
27.03.2023 16:28 6,5 C 7,2 C 2,8 C 78 % 1022,8 hPa 0,0 l/m 0 min 0 min 86 W/m 19,3 km/h (3 Bft) 97,87 %
27.03.2023 16:30 6,4 C 6,7 C 2,2 C 77 % 1022,7 hPa 0,0 l/m 0 min 0 min 67 W/m 19,3 km/h (3 Bft) 95,74 %
27.03.2023 16:32 6,3 C 6,1 C 2,2 C 77 % 1022,8 hPa 0,0 l/m 0 min 0 min 69 W/m 12,9 km/h (3 Bft) 97,87 %
27.03.2023 16:34 6,3 C 6,1 C 2,2 C 77 % 1022,8 hPa 0,0 l/m 0 min 0 min 60 W/m 22,5 km/h (4 Bft) 97,87 %
27.03.2023 16:36 6,3 C 6,1 C 2,2 C 77 % 1022,8 hPa 0,0 l/m 0 min 0 min 55 W/m 16,1 km/h (3 Bft) 95,74 %
27.03.2023 16:38 6,2 C 6,1 C 2,2 C 77 % 1022,8 hPa 0,0 l/m 0 min 0 min 55 W/m 16,1 km/h (3 Bft) 95,65 %
27.03.2023 16:40 6,2 C 5,6 C 1,7 C 77 % 1022,8 hPa 0,0 l/m 0 min 0 min 63 W/m 16,1 km/h (3 Bft) 97,87 %
27.03.2023 16:42 6,1 C 6,7 C 2,2 C 78 % 1022,9 hPa 0,0 l/m 0 min 0 min 139 W/m 16,1 km/h (3 Bft) 97,87 %
27.03.2023 16:44 6,2 C 8,3 C 2,2 C 79 % 1022,9 hPa 0,0 l/m 2 min 0 min 491 W/m 9,7 km/h (2 Bft) 95,74 %
27.03.2023 16:46 6,4 C 9,4 C 2,8 C 79 % 1022,9 hPa 0,0 l/m 2 min 0 min 509 W/m 12,9 km/h (3 Bft) 97,87 %
27.03.2023 16:48 6,6 C 9,4 C 2,8 C 79 % 1022,8 hPa 0,0 l/m 2 min 0 min 503 W/m 12,9 km/h (3 Bft) 97,87 %
27.03.2023 16:50 6,7 C 10,0 C 3,3 C 79 % 1022,8 hPa 0,0 l/m 2 min 0 min 497 W/m 12,9 km/h (3 Bft) 95,74 %
27.03.2023 16:52 6,8 C 11,1 C 3,3 C 79 % 1022,8 hPa 0,0 l/m 2 min 0 min 513 W/m 12,9 km/h (3 Bft) 97,83 %
27.03.2023 16:54 6,9 C 11,7 C 3,3 C 79 % 1022,8 hPa 0,0 l/m 2 min 0 min 556 W/m 9,7 km/h (2 Bft) 95,74 %
27.03.2023 16:56 7,1 C 11,7 C 3,9 C 80 % 1022,8 hPa 0,0 l/m 2 min 0 min 578 W/m 12,9 km/h (3 Bft) 95,74 %
27.03.2023 16:58 7,2 C 11,1 C 3,9 C 80 % 1022,7 hPa 0,0 l/m 2 min 0 min 538 W/m 9,7 km/h (2 Bft) 97,87 %
27.03.2023 17:00 7,3 C 10,0 C 3,9 C 80 % 1022,7 hPa 0,0 l/m 2 min 0 min 399 W/m 6,4 km/h (2 Bft) 95,74 %
27.03.2023 17:02 7,3 C 8,9 C 3,9 C 80 % 1022,7 hPa 0,0 l/m 0 min 0 min 152 W/m 9,7 km/h (2 Bft) 97,87 %
27.03.2023 17:04 7,2 C 7,8 C 3,3 C 79 % 1022,8 hPa 0,0 l/m 0 min 0 min 116 W/m 6,4 km/h (2 Bft) 97,87 %
27.03.2023 17:06 7,1 C 7,2 C 3,3 C 79 % 1022,8 hPa 0,0 l/m 0 min 0 min 101 W/m 6,4 km/h (2 Bft) 97,83 %
27.03.2023 17:08 6,9 C 6,7 C 2,8 C 79 % 1022,8 hPa 0,0 l/m 0 min 0 min 104 W/m 6,4 km/h (2 Bft) 97,87 %
27.03.2023 17:10 6,8 C 6,1 C 2,8 C 80 % 1022,8 hPa 0,0 l/m 0 min 0 min 96 W/m 12,9 km/h (3 Bft) 95,74 %
27.03.2023 17:12 6,7 C 6,1 C 2,8 C 81 % 1022,8 hPa 0,0 l/m 0 min 0 min 77 W/m 12,9 km/h (3 Bft) 97,87 %
27.03.2023 17:14 6,6 C 6,1 C 2,2 C 80 % 1022,9 hPa 0,0 l/m 0 min 0 min 48 W/m 16,1 km/h (3 Bft) 97,87 %
27.03.2023 17:16 6,5 C 6,1 C 2,2 C 80 % 1023,1 hPa 0,0 l/m 0 min 0 min 47 W/m 19,3 km/h (3 Bft) 97,87 %
27.03.2023 17:18 6,5 C 6,1 C 2,2 C 80 % 1023,2 hPa 0,0 l/m 0 min 0 min 56 W/m 32,2 km/h (5 Bft) 97,83 %
27.03.2023 17:20 6,3 C 5,6 C 2,2 C 80 % 1023,3 hPa 0,0 l/m 0 min 2 min 53 W/m 25,7 km/h (4 Bft) 97,87 %
27.03.2023 17:22 6,2 C 5,0 C 1,7 C 81 % 1023,3 hPa 0,0 l/m 0 min 2 min 53 W/m 35,4 km/h (5 Bft) 95,74 %
27.03.2023 17:24 5,9 C 5,0 C 1,7 C 82 % 1023,3 hPa 0,0 l/m 0 min 2 min 74 W/m 19,3 km/h (3 Bft) 95,74 %
27.03.2023 17:26 5,7 C 4,4 C 1,1 C 82 % 1023,3 hPa 0,0 l/m 0 min 2 min 92 W/m 16,1 km/h (3 Bft) 100,00 %
27.03.2023 17:28 5,4 C 4,4 C 1,1 C 83 % 1023,3 hPa 0,0 l/m 0 min 0 min 101 W/m 16,1 km/h (3 Bft) 100,00 %
27.03.2023 17:30 5,2 C 4,4 C 1,1 C 83 % 1023,3 hPa 0,0 l/m 0 min 0 min 107 W/m 19,3 km/h (3 Bft) 100,00 %
27.03.2023 17:32 5,2 C 5,0 C 1,1 C 84 % 1023,4 hPa 0,0 l/m 0 min 0 min 125 W/m 19,3 km/h (3 Bft) 100,00 %
27.03.2023 17:34 5,1 C 5,0 C 1,1 C 85 % 1023,5 hPa 0,0 l/m 0 min 0 min 151 W/m 12,9 km/h (3 Bft) 95,65 %
27.03.2023 17:36 5,2 C 6,1 C 1,1 C 85 % 1023,4 hPa 0,0 l/m 2 min 0 min 207 W/m 9,7 km/h (2 Bft) 100,00 %
27.03.2023 17:38 5,2 C 5,6 C 1,1 C 85 % 1023,3 hPa 0,0 l/m 2 min 0 min 193 W/m 25,7 km/h (4 Bft) 100,00 %
27.03.2023 17:40 5,2 C 5,6 C 1,1 C 85 % 1023,4 hPa 0,0 l/m 0 min 0 min 171 W/m 16,1 km/h (3 Bft) 100,00 %
27.03.2023 17:42 5,2 C 6,7 C 1,7 C 85 % 1023,4 hPa 0,0 l/m 2 min 0 min 253 W/m 16,1 km/h (3 Bft) 97,87 %
27.03.2023 17:44 5,3 C 7,8 C 1,7 C 85 % 1023,4 hPa 0,0 l/m 2 min 0 min 373 W/m 9,7 km/h (2 Bft) 100,00 %
27.03.2023 17:46 5,4 C 8,3 C 1,7 C 85 % 1023,4 hPa 0,0 l/m 2 min 0 min 359 W/m 19,3 km/h (3 Bft) 95,74 %
27.03.2023 17:48 5,6 C 8,9 C 2,2 C 85 % 1023,4 hPa 0,0 l/m 2 min 0 min 338 W/m 16,1 km/h (3 Bft) 97,83 %
27.03.2023 17:50 5,7 C 8,3 C 2,2 C 85 % 1023,4 hPa 0,0 l/m 2 min 0 min 241 W/m 12,9 km/h (3 Bft) 95,74 %
27.03.2023 17:52 5,7 C 7,8 C 2,2 C 83 % 1023,4 hPa 0,0 l/m 2 min 0 min 195 W/m 16,1 km/h (3 Bft) 95,74 %
27.03.2023 17:54 5,8 C 8,3 C 2,2 C 82 % 1023,4 hPa 0,0 l/m 2 min 0 min 301 W/m 12,9 km/h (3 Bft) 93,62 %
27.03.2023 17:56 5,9 C 8,3 C 2,2 C 82 % 1023,4 hPa 0,0 l/m 2 min 0 min 305 W/m 19,3 km/h (3 Bft) 95,74 %
27.03.2023 17:58 5,9 C 8,3 C 2,2 C 81 % 1023,4 hPa 0,0 l/m 2 min 0 min 296 W/m 16,1 km/h (3 Bft) 93,62 %
27.03.2023 18:00 6,1 C 8,3 C 2,2 C 80 % 1023,4 hPa 0,0 l/m 2 min 0 min 289 W/m 22,5 km/h (4 Bft) 95,74 %
27.03.2023 18:02 6,1 C 7,8 C 2,2 C 80 % 1023,5 hPa 0,0 l/m 2 min 0 min 279 W/m 9,7 km/h (2 Bft) 95,65 %
27.03.2023 18:04 6,2 C 7,2 C 2,2 C 79 % 1023,5 hPa 0,0 l/m 2 min 0 min 271 W/m 12,9 km/h (3 Bft) 95,12 %
27.03.2023 18:07 6,3 C 6,7 C 2,2 C 79 % 1023,5 hPa 0,0 l/m 3 min 0 min 259 W/m 22,5 km/h (4 Bft) 93,59 %
27.03.2023 18:08 6,3 C 6,7 C 2,2 C 79 % 1023,5 hPa 0,0 l/m 1 min 0 min 250 W/m 12,9 km/h (3 Bft) 100,00 %
27.03.2023 18:12 6,3 C 6,7 C 2,2 C 77 % 1023,5 hPa 0,0 l/m 4 min 0 min 239 W/m 22,5 km/h (4 Bft) 94,64 %
27.03.2023 18:14 6,4 C 6,7 C 2,8 C 77 % 1023,5 hPa 0,0 l/m 2 min 0 min 232 W/m 22,5 km/h (4 Bft) 95,74 %
27.03.2023 18:16 6,4 C 6,7 C 2,2 C 77 % 1023,5 hPa 0,0 l/m 2 min 0 min 166 W/m 32,2 km/h (5 Bft) 93,62 %
27.03.2023 18:18 6,4 C 6,7 C 2,8 C 76 % 1023,5 hPa 0,0 l/m 0 min 0 min 84 W/m 22,5 km/h (4 Bft) 95,65 %
27.03.2023 18:20 6,4 C 6,1 C 2,2 C 76 % 1023,5 hPa 0,0 l/m 0 min 0 min 82 W/m 25,7 km/h (4 Bft) 95,74 %
27.03.2023 18:22 6,4 C 6,1 C 2,2 C 76 % 1023,5 hPa 0,0 l/m 0 min 0 min 70 W/m 16,1 km/h (3 Bft) 95,74 %
27.03.2023 18:24 6,3 C 6,1 C 2,2 C 76 % 1023,6 hPa 0,0 l/m 2 min 0 min 167 W/m 16,1 km/h (3 Bft) 95,74 %
27.03.2023 18:26 6,3 C 6,7 C 2,8 C 77 % 1023,6 hPa 0,0 l/m 2 min 0 min 182 W/m 12,9 km/h (3 Bft) 97,87 %
27.03.2023 18:28 6,4 C 6,7 C 2,8 C 76 % 1023,6 hPa 0,0 l/m 2 min 0 min 168 W/m 22,5 km/h (4 Bft) 97,87 %
27.03.2023 18:30 6,4 C 6,7 C 2,8 C 76 % 1023,6 hPa 0,0 l/m 2 min 0 min 172 W/m 16,1 km/h (3 Bft) 95,65 %
27.03.2023 18:32 6,4 C 6,7 C 2,8 C 76 % 1023,6 hPa 0,0 l/m 2 min 0 min 162 W/m 19,3 km/h (3 Bft) 97,87 %
27.03.2023 18:34 6,5 C 7,2 C 2,8 C 76 % 1023,6 hPa 0,0 l/m 2 min 0 min 174 W/m 16,1 km/h (3 Bft) 97,87 %
27.03.2023 18:36 6,6 C 7,8 C 3,3 C 77 % 1023,6 hPa 0,0 l/m 2 min 2 min 179 W/m 25,7 km/h (4 Bft) 97,87 %
27.03.2023 18:38 6,7 C 7,8 C 3,3 C 77 % 1023,7 hPa 0,0 l/m 2 min 2 min 193 W/m 19,3 km/h (3 Bft) 95,74 %
27.03.2023 18:40 6,8 C 7,8 C 3,9 C 77 % 1023,7 hPa 0,0 l/m 2 min 2 min 211 W/m 16,1 km/h (3 Bft) 97,87 %
27.03.2023 18:42 6,9 C 8,3 C 3,9 C 77 % 1023,6 hPa 0,0 l/m 2 min 0 min 198 W/m 16,1 km/h (3 Bft) 97,87 %
27.03.2023 18:44 7,1 C 7,8 C 3,9 C 76 % 1023,7 hPa 0,0 l/m 2 min 0 min 143 W/m 19,3 km/h (3 Bft) 100,00 %
27.03.2023 18:46 7,1 C 7,8 C 3,9 C 76 % 1023,8 hPa 0,0 l/m 0 min 0 min 64 W/m 22,5 km/h (4 Bft) 97,83 %
27.03.2023 18:48 7,1 C 7,8 C 3,3 C 75 % 1023,8 hPa 0,0 l/m 2 min 0 min 122 W/m 19,3 km/h (3 Bft) 100,00 %
27.03.2023 18:50 7,1 C 7,2 C 3,3 C 75 % 1023,8 hPa 0,0 l/m 2 min 0 min 113 W/m 16,1 km/h (3 Bft) 100,00 %
27.03.2023 18:52 7,1 C 7,2 C 3,3 C 74 % 1023,8 hPa 0,0 l/m 2 min 0 min 108 W/m 19,3 km/h (3 Bft) 97,87 %
27.03.2023 18:54 7,1 C 7,2 C 3,3 C 74 % 1023,8 hPa 0,0 l/m 2 min 0 min 101 W/m 19,3 km/h (3 Bft) 100,00 %
27.03.2023 18:56 7,1 C 7,2 C 3,3 C 74 % 1023,9 hPa 0,0 l/m 0 min 0 min 72 W/m 12,9 km/h (3 Bft) 100,00 %
27.03.2023 18:58 7,0 C 6,7 C 2,8 C 74 % 1023,9 hPa 0,0 l/m 0 min 0 min 35 W/m 25,7 km/h (4 Bft) 100,00 %
27.03.2023 19:00 6,8 C 6,7 C 2,8 C 73 % 1023,9 hPa 0,0 l/m 0 min 0 min 27 W/m 25,7 km/h (4 Bft) 100,00 %
27.03.2023 19:02 6,7 C 6,1 C 2,8 C 73 % 1024,0 hPa 0,0 l/m 0 min 0 min 25 W/m 19,3 km/h (3 Bft) 97,87 %
27.03.2023 19:04 6,7 C 6,1 C 2,2 C 73 % 1024,0 hPa 0,0 l/m 0 min 0 min 24 W/m 35,4 km/h (5 Bft) 100,00 %
27.03.2023 19:06 6,5 C 6,1 C 2,2 C 73 % 1024,1 hPa 0,0 l/m 0 min 0 min 23 W/m 19,3 km/h (3 Bft) 100,00 %
27.03.2023 19:08 6,4 C 5,6 C 2,2 C 74 % 1024,1 hPa 0,0 l/m 0 min 0 min 21 W/m 19,3 km/h (3 Bft) 100,00 %
27.03.2023 19:10 6,3 C 5,6 C 2,2 C 74 % 1024,2 hPa 0,0 l/m 0 min 0 min 21 W/m 22,5 km/h (4 Bft) 100,00 %
27.03.2023 19:12 6,2 C 5,6 C 2,2 C 75 % 1024,2 hPa 0,0 l/m 0 min 0 min 21 W/m 22,5 km/h (4 Bft) 100,00 %
27.03.2023 19:14 6,1 C 5,6 C 1,7 C 76 % 1024,2 hPa 0,0 l/m 0 min 0 min 19 W/m 22,5 km/h (4 Bft) 100,00 %
27.03.2023 19:16 6,0 C 5,6 C 1,7 C 76 % 1024,2 hPa 0,0 l/m 0 min 0 min 19 W/m 19,3 km/h (3 Bft) 100,00 %
27.03.2023 19:18 5,9 C 5,0 C 1,7 C 76 % 1024,2 hPa 0,0 l/m 0 min 0 min 19 W/m 19,3 km/h (3 Bft) 97,87 %
27.03.2023 19:20 5,9 C 5,0 C 1,7 C 77 % 1024,2 hPa 0,0 l/m 0 min 0 min 20 W/m 19,3 km/h (3 Bft) 97,87 %
27.03.2023 19:22 5,8 C 5,0 C 1,7 C 77 % 1024,3 hPa 0,0 l/m 0 min 0 min 21 W/m 19,3 km/h (3 Bft) 100,00 %
27.03.2023 19:24 5,7 C 5,0 C 1,7 C 77 % 1024,2 hPa 0,0 l/m 0 min 0 min 23 W/m 19,3 km/h (3 Bft) 97,87 %
27.03.2023 19:26 5,6 C 5,0 C 1,7 C 76 % 1024,3 hPa 0,0 l/m 0 min 0 min 25 W/m 19,3 km/h (3 Bft) 97,83 %
27.03.2023 19:28 5,6 C 5,0 C 1,1 C 76 % 1024,3 hPa 0,0 l/m 0 min 0 min 27 W/m 19,3 km/h (3 Bft) 97,87 %
27.03.2023 19:30 5,5 C 5,0 C 1,7 C 75 % 1024,4 hPa 0,0 l/m 0 min 0 min 30 W/m 16,1 km/h (3 Bft) 100,00 %
27.03.2023 19:32 5,4 C 5,0 C 1,7 C 75 % 1024,4 hPa 0,0 l/m 2 min 0 min 32 W/m 16,1 km/h (3 Bft) 95,74 %
27.03.2023 19:34 5,4 C 5,0 C 1,1 C 75 % 1024,4 hPa 0,0 l/m 2 min 0 min 32 W/m 16,1 km/h (3 Bft) 95,74 %
27.03.2023 19:36 5,4 C 5,0 C 1,7 C 75 % 1024,4 hPa 0,0 l/m 2 min 0 min 32 W/m 12,9 km/h (3 Bft) 97,87 %
27.03.2023 19:38 5,4 C 5,0 C 1,7 C 75 % 1024,5 hPa 0,0 l/m 2 min 0 min 29 W/m 16,1 km/h (3 Bft) 97,87 %
27.03.2023 19:40 5,3 C 5,0 C 1,7 C 74 % 1024,5 hPa 0,0 l/m 2 min 0 min 28 W/m 19,3 km/h (3 Bft) 97,87 %
27.03.2023 19:42 5,4 C 5,0 C 1,7 C 74 % 1024,5 hPa 0,0 l/m 2 min 0 min 26 W/m 16,1 km/h (3 Bft) 97,83 %
27.03.2023 19:44 5,4 C 5,0 C 1,7 C 74 % 1024,6 hPa 0,0 l/m 0 min 0 min 19 W/m 19,3 km/h (3 Bft) 97,87 %
27.03.2023 19:46 5,4 C 5,0 C 1,7 C 74 % 1024,6 hPa 0,0 l/m 0 min 0 min 15 W/m 25,7 km/h (4 Bft) 97,87 %
27.03.2023 19:48 5,4 C 5,0 C 1,7 C 74 % 1024,6 hPa 0,0 l/m 0 min 0 min 11 W/m 16,1 km/h (3 Bft) 95,74 %
27.03.2023 19:50 5,4 C 5,0 C 1,7 C 73 % 1024,6 hPa 0,0 l/m 0 min 0 min 9 W/m 12,9 km/h (3 Bft) 97,87 %
27.03.2023 19:52 5,4 C 5,0 C 1,7 C 73 % 1024,7 hPa 0,0 l/m 0 min 0 min 7 W/m 19,3 km/h (3 Bft) 95,74 %
27.03.2023 19:54 5,4 C 5,0 C 1,7 C 73 % 1024,7 hPa 0,0 l/m 0 min 0 min 6 W/m 19,3 km/h (3 Bft) 97,83 %
27.03.2023 19:56 5,4 C 5,0 C 1,1 C 73 % 1024,7 hPa 0,0 l/m 0 min 0 min 5 W/m 25,7 km/h (4 Bft) 97,87 %
27.03.2023 19:58 5,3 C 5,0 C 1,7 C 74 % 1024,7 hPa 0,0 l/m 0 min 0 min 0 W/m 16,1 km/h (3 Bft) 93,62 %
27.03.2023 20:00 5,3 C 5,0 C 1,7 C 74 % 1024,7 hPa 0,0 l/m 0 min 0 min 0 W/m 19,3 km/h (3 Bft) 97,87 %
27.03.2023 20:02 5,3 C 5,0 C 1,7 C 74 % 1024,7 hPa 0,0 l/m 0 min 0 min 0 W/m 12,9 km/h (3 Bft) 97,87 %
27.03.2023 20:04 5,3 C 5,0 C 1,7 C 74 % 1024,7 hPa 0,0 l/m 0 min 0 min 0 W/m 12,9 km/h (3 Bft) 97,87 %
27.03.2023 20:06 5,3 C 5,0 C 1,1 C 75 % 1024,7 hPa 0,0 l/m 0 min 0 min 0 W/m 12,9 km/h (3 Bft) 96,55 %
27.03.2023 20:08 5,3 C 5,0 C 1,1 C 75 % 1024,8 hPa 0,0 l/m 0 min 0 min 0 W/m 16,1 km/h (3 Bft) 97,14 %
27.03.2023 20:10 5,2 C 4,4 C 1,1 C 75 % 1024,7 hPa 0,0 l/m 0 min 0 min 0 W/m 12,9 km/h (3 Bft) 97,87 %
27.03.2023 20:12 5,2 C 4,4 C 1,1 C 75 % 1024,7 hPa 0,0 l/m 0 min 0 min 0 W/m 12,9 km/h (3 Bft) 93,62 %
27.03.2023 20:14 5,2 C 4,4 C 1,1 C 75 % 1024,7 hPa 0,0 l/m 0 min 0 min 0 W/m 16,1 km/h (3 Bft) 93,62 %
27.03.2023 20:16 5,2 C 4,4 C 1,1 C 75 % 1024,8 hPa 0,0 l/m 0 min 0 min 0 W/m 9,7 km/h (2 Bft) 95,74 %
27.03.2023 20:18 5,2 C 4,4 C 1,1 C 75 % 1024,8 hPa 0,0 l/m 0 min 0 min 0 W/m 6,4 km/h (2 Bft) 97,87 %
27.03.2023 20:20 5,1 C 4,4 C 0,6 C 76 % 1024,8 hPa 0,0 l/m 0 min 0 min 0 W/m 12,9 km/h (3 Bft) 97,87 %
27.03.2023 20:22 5,1 C 4,4 C 0,6 C 76 % 1024,9 hPa 0,0 l/m 0 min 0 min 0 W/m 9,7 km/h (2 Bft) 97,83 %
27.03.2023 20:24 5,1 C 3,9 C 0,6 C 76 % 1024,8 hPa 0,0 l/m 0 min 0 min 0 W/m 6,4 km/h (2 Bft) 97,87 %
27.03.2023 20:26 5,0 C 3,9 C 0,6 C 76 % 1024,9 hPa 0,0 l/m 0 min 0 min 0 W/m 9,7 km/h (2 Bft) 95,74 %
27.03.2023 20:28 4,9 C 3,9 C 0,6 C 76 % 1024,9 hPa 0,0 l/m 0 min 0 min 0 W/m 9,7 km/h (2 Bft) 97,87 %
27.03.2023 20:30 4,9 C 3,9 C 0,6 C 76 % 1025,0 hPa 0,0 l/m 0 min 0 min 0 W/m 6,4 km/h (2 Bft) 93,62 %
27.03.2023 20:32 4,8 C 3,9 C 0,6 C 77 % 1025,0 hPa 0,0 l/m 0 min 0 min 0 W/m 9,7 km/h (2 Bft) 100,00 %
27.03.2023 20:34 4,8 C 3,9 C 0,6 C 77 % 1025,0 hPa 0,0 l/m 0 min 0 min 0 W/m 6,4 km/h (2 Bft) 100,00 %
27.03.2023 20:36 4,8 C 3,9 C 0,0 C 77 % 1025,0 hPa 0,0 l/m 0 min 0 min 0 W/m 6,4 km/h (2 Bft) 100,00 %
27.03.2023 20:38 4,7 C 3,9 C 0,0 C 77 % 1025,0 hPa 0,0 l/m 0 min 0 min 0 W/m 6,4 km/h (2 Bft) 97,87 %
27.03.2023 20:40 4,7 C 3,9 C 0,0 C 78 % 1025,0 hPa 0,0 l/m 0 min 0 min 0 W/m 6,4 km/h (2 Bft) 100,00 %
27.03.2023 20:42 4,7 C 3,9 C 0,0 C 78 % 1025,0 hPa 0,0 l/m 0 min 0 min 0 W/m 6,4 km/h (2 Bft) 100,00 %
27.03.2023 20:44 4,6 C 3,3 C 0,0 C 78 % 1025,0 hPa 0,0 l/m 0 min 0 min 0 W/m 6,4 km/h (2 Bft) 100,00 %
27.03.2023 20:46 4,6 C 3,3 C 0,0 C 78 % 1025,1 hPa 0,0 l/m 0 min 0 min 0 W/m 6,4 km/h (2 Bft) 100,00 %
27.03.2023 20:48 4,5 C 3,3 C 0,0 C 79 % 1025,1 hPa 0,0 l/m 0 min 0 min 0 W/m 3,2 km/h (1 Bft) 100,00 %
27.03.2023 20:50 4,5 C 3,3 C 0,0 C 79 % 1025,1 hPa 0,0 l/m 0 min 0 min 0 W/m 3,2 km/h (1 Bft) 95,83 %
27.03.2023 20:52 4,4 C 3,3 C 0,0 C 80 % 1025,2 hPa 0,0 l/m 0 min 0 min 0 W/m 6,4 km/h (2 Bft) 97,87 %
27.03.2023 20:54 4,4 C 3,3 C 0,0 C 80 % 1025,2 hPa 0,0 l/m 0 min 0 min 0 W/m 6,4 km/h (2 Bft) 97,87 %
27.03.2023 20:56 4,3 C 3,3 C 0,0 C 80 % 1025,2 hPa 0,0 l/m 0 min 0 min 0 W/m 3,2 km/h (1 Bft) 95,74 %
27.03.2023 20:58 4,3 C 3,3 C 0,0 C 81 % 1025,2 hPa 0,0 l/m 0 min 0 min 0 W/m 6,4 km/h (2 Bft) 95,74 %
27.03.2023 21:00 4,2 C 3,3 C 0,0 C 81 % 1025,3 hPa 0,0 l/m 0 min 0 min 0 W/m 6,4 km/h (2 Bft) 96,00 %
27.03.2023 21:02 4,2 C 3,3 C 0,0 C 81 % 1025,2 hPa 0,0 l/m 0 min 0 min 0 W/m 6,4 km/h (2 Bft) 97,83 %
27.03.2023 21:04 4,1 C 3,3 C 0,0 C 81 % 1025,3 hPa 0,0 l/m 0 min 0 min 0 W/m 6,4 km/h (2 Bft) 97,87 %
27.03.2023 21:06 4,1 C 3,3 C 0,0 C 82 % 1025,3 hPa 0,0 l/m 0 min 0 min 0 W/m 6,4 km/h (2 Bft) 95,83 %
27.03.2023 21:08 4,1 C 2,8 C 0,0 C 82 % 1025,3 hPa 0,0 l/m 0 min 0 min 0 W/m 3,2 km/h (1 Bft) 100,00 %
27.03.2023 21:10 4,0 C 2,8 C -0,6 C 82 % 1025,3 hPa 0,0 l/m 0 min 0 min 0 W/m 3,2 km/h (1 Bft) 95,74 %
27.03.2023 21:12 4,0 C 2,8 C -0,6 C 82 % 1025,3 hPa 0,0 l/m 0 min 0 min 0 W/m 9,7 km/h (2 Bft) 97,87 %
27.03.2023 21:14 3,9 C 2,8 C -0,6 C 82 % 1025,4 hPa 0,0 l/m 0 min 0 min 0 W/m 6,4 km/h (2 Bft) 97,87 %
27.03.2023 21:16 3,9 C 2,8 C -0,6 C 83 % 1025,4 hPa 0,0 l/m 0 min 0 min 0 W/m 3,2 km/h (1 Bft) 95,74 %
27.03.2023 21:18 3,9 C 2,8 C -0,6 C 83 % 1025,4 hPa 0,0 l/m 0 min 0 min 0 W/m 3,2 km/h (1 Bft) 97,87 %
27.03.2023 21:20 3,9 C 2,8 C -0,6 C 83 % 1025,5 hPa 0,0 l/m 0 min 0 min 0 W/m 3,2 km/h (1 Bft) 97,83 %
27.03.2023 21:22 3,8 C 2,8 C -0,6 C 83 % 1025,5 hPa 0,0 l/m 0 min 0 min 0 W/m 3,2 km/h (1 Bft) 98,11 %
27.03.2023 21:24 3,8 C 2,8 C -0,6 C 83 % 1025,5 hPa 0,0 l/m 0 min 0 min 0 W/m 3,2 km/h (1 Bft) 97,87 %
27.03.2023 21:26 3,8 C 2,8 C -0,6 C 83 % 1025,6 hPa 0,0 l/m 0 min 0 min 0 W/m 6,4 km/h (2 Bft) 95,74 %
27.03.2023 21:28 3,8 C 2,8 C -0,6 C 83 % 1025,5 hPa 0,0 l/m 0 min 0 min 0 W/m 9,7 km/h (2 Bft) 97,87 %
27.03.2023 21:30 3,8 C 2,8 C 0,0 C 83 % 1025,5 hPa 0,0 l/m 0 min 0 min 0 W/m 3,2 km/h (1 Bft) 100,00 %
27.03.2023 21:32 3,7 C 2,8 C -0,6 C 83 % 1025,5 hPa 0,0 l/m 0 min 0 min 0 W/m 6,4 km/h (2 Bft) 93,62 %
27.03.2023 21:34 3,7 C 2,8 C -0,6 C 84 % 1025,5 hPa 0,0 l/m 0 min 0 min 0 W/m 9,7 km/h (2 Bft) 95,74 %
27.03.2023 21:36 3,7 C 2,8 C -0,6 C 84 % 1025,5 hPa 0,0 l/m 0 min 0 min 0 W/m 6,4 km/h (2 Bft) 93,62 %
27.03.2023 21:38 3,7 C 2,8 C -0,6 C 84 % 1025,6 hPa 0,0 l/m 0 min 0 min 0 W/m 6,4 km/h (2 Bft) 97,87 %
27.03.2023 21:40 3,7 C 2,8 C -0,6 C 84 % 1025,5 hPa 0,0 l/m 0 min 0 min 0 W/m 3,2 km/h (1 Bft) 95,74 %
27.03.2023 21:42 3,6 C 2,8 C -0,6 C 84 % 1025,5 hPa 0,0 l/m 0 min 0 min 0 W/m 6,4 km/h (2 Bft) 91,49 %
27.03.2023 21:44 3,6 C 2,8 C -0,6 C 83 % 1025,5 hPa 0,0 l/m 0 min 0 min 0 W/m 6,4 km/h (2 Bft) 95,74 %
27.03.2023 21:46 3,6 C 2,8 C -0,6 C 83 % 1025,5 hPa 0,0 l/m 0 min 0 min 0 W/m 9,7 km/h (2 Bft) 93,48 %
27.03.2023 21:48 3,6 C 2,8 C -0,6 C 83 % 1025,5 hPa 0,0 l/m 0 min 0 min 0 W/m 6,4 km/h (2 Bft) 95,74 %
27.03.2023 21:50 3,6 C 2,8 C -0,6 C 84 % 1025,5 hPa 0,0 l/m 0 min 0 min 0 W/m 9,7 km/h (2 Bft) 93,62 %
27.03.2023 21:52 3,5 C 2,8 C -0,6 C 84 % 1025,6 hPa 0,0 l/m 0 min 0 min 0 W/m 6,4 km/h (2 Bft) 92,00 %
27.03.2023 21:54 3,5 C 2,8 C -0,6 C 83 % 1025,6 hPa 0,0 l/m 0 min 0 min 0 W/m 9,7 km/h (2 Bft) 94,00 %
27.03.2023 21:56 3,5 C 2,8 C -0,6 C 83 % 1025,6 hPa 0,0 l/m 0 min 0 min 0 W/m 6,4 km/h (2 Bft) 91,49 %
27.03.2023 21:58 3,4 C 2,8 C -0,6 C 83 % 1025,6 hPa 0,0 l/m 0 min 0 min 0 W/m 3,2 km/h (1 Bft) 93,48 %
27.03.2023 22:00 3,4 C 2,8 C -0,6 C 83 % 1025,6 hPa 0,0 l/m 0 min 0 min 0 W/m 6,4 km/h (2 Bft) 95,74 %
27.03.2023 22:02 3,4 C 2,8 C -0,6 C 83 % 1025,7 hPa 0,0 l/m 0 min 0 min 0 W/m 3,2 km/h (1 Bft) 93,62 %
27.03.2023 22:04 3,4 C 2,8 C -0,6 C 83 % 1025,7 hPa 0,0 l/m 0 min 0 min 0 W/m 9,7 km/h (2 Bft) 95,74 %
27.03.2023 22:06 3,4 C 2,8 C -0,6 C 84 % 1025,7 hPa 0,0 l/m 0 min 0 min 0 W/m 6,4 km/h (2 Bft) 97,87 %
27.03.2023 22:08 3,4 C 2,8 C -0,6 C 84 % 1025,8 hPa 0,0 l/m 0 min 0 min 0 W/m 9,7 km/h (2 Bft) 97,87 %
27.03.2023 22:10 3,3 C 2,8 C -0,6 C 84 % 1025,7 hPa 0,0 l/m 0 min 0 min 0 W/m 6,4 km/h (2 Bft) 97,87 %
27.03.2023 22:12 3,3 C 2,8 C -0,6 C 84 % 1025,8 hPa 0,0 l/m 0 min 0 min 0 W/m 6,4 km/h (2 Bft) 97,83 %
27.03.2023 22:14 3,3 C 2,8 C -0,6 C 84 % 1025,8 hPa 0,0 l/m 0 min 0 min 0 W/m 3,2 km/h (1 Bft) 97,87 %
27.03.2023 22:16 3,3 C 2,8 C -0,6 C 84 % 1025,8 hPa 0,0 l/m 0 min 0 min 0 W/m 6,4 km/h (2 Bft) 97,87 %
27.03.2023 22:18 3,3 C 2,8 C -0,6 C 84 % 1025,8 hPa 0,0 l/m 0 min 0 min 0 W/m 3,2 km/h (1 Bft) 97,87 %
27.03.2023 22:20 3,3 C 2,2 C -0,6 C 84 % 1025,8 hPa 0,0 l/m 0 min 0 min 0 W/m 3,2 km/h (1 Bft) 97,87 %
27.03.2023 22:22 3,3 C 2,2 C -0,6 C 84 % 1025,8 hPa 0,0 l/m 0 min 0 min 0 W/m 3,2 km/h (1 Bft) 97,87 %
27.03.2023 22:24 3,3 C 2,2 C -0,6 C 84 % 1025,8 hPa 0,0 l/m 0 min 0 min 0 W/m 3,2 km/h (1 Bft) 100,00 %
27.03.2023 22:26 3,2 C 2,2 C -0,6 C 84 % 1025,9 hPa 0,0 l/m 0 min 0 min 0 W/m 3,2 km/h (1 Bft) 97,83 %
27.03.2023 22:28 3,2 C 2,2 C -1,1 C 84 % 1025,9 hPa 0,0 l/m 0 min 0 min 0 W/m 3,2 km/h (1 Bft) 100,00 %
27.03.2023 22:30 3,2 C 2,2 C -1,1 C 84 % 1025,9 hPa 0,0 l/m 0 min 0 min 0 W/m 6,4 km/h (2 Bft) 100,00 %
27.03.2023 22:32 3,2 C 2,2 C -1,1 C 84 % 1025,8 hPa 0,0 l/m 0 min 0 min 0 W/m 3,2 km/h (1 Bft) 97,30 %
27.03.2023 22:34 3,1 C 2,2 C -1,1 C 84 % 1025,8 hPa 0,0 l/m 0 min 0 min 0 W/m 3,2 km/h (1 Bft) 100,00 %
27.03.2023 22:36 3,1 C 2,2 C -1,1 C 84 % 1025,9 hPa 0,0 l/m 0 min 0 min 0 W/m 3,2 km/h (1 Bft) 100,00 %
27.03.2023 22:38 3,1 C 2,2 C -1,1 C 84 % 1025,9 hPa 0,0 l/m 0 min 0 min 0 W/m 3,2 km/h (1 Bft) 100,00 %
27.03.2023 22:40 3,1 C 2,2 C -1,1 C 84 % 1025,8 hPa 0,0 l/m 0 min 0 min 0 W/m 3,2 km/h (1 Bft) 100,00 %
27.03.2023 22:42 3,1 C 2,2 C -1,1 C 84 % 1025,9 hPa 0,0 l/m 0 min 0 min 0 W/m 3,2 km/h (1 Bft) 100,00 %
27.03.2023 22:44 3,0 C 2,2 C -1,1 C 85 % 1025,9 hPa 0,0 l/m 0 min 0 min 0 W/m 6,4 km/h (2 Bft) 97,83 %
27.03.2023 22:46 2,9 C 2,2 C -1,1 C 84 % 1025,9 hPa 0,0 l/m 0 min 0 min 0 W/m 3,2 km/h (1 Bft) 97,87 %
27.03.2023 22:48 2,9 C 1,7 C -1,1 C 84 % 1025,9 hPa 0,0 l/m 0 min 0 min 0 W/m 3,2 km/h (1 Bft) 97,87 %
27.03.2023 22:50 2,9 C 1,7 C -1,1 C 84 % 1025,9 hPa 0,0 l/m 0 min 0 min 0 W/m 3,2 km/h (1 Bft) 100,00 %
27.03.2023 22:52 2,9 C 1,7 C -1,1 C 84 % 1025,9 hPa 0,0 l/m 0 min 0 min 0 W/m 6,4 km/h (2 Bft) 100,00 %
27.03.2023 22:54 2,8 C 1,7 C -1,7 C 85 % 1025,9 hPa 0,0 l/m 0 min 0 min 0 W/m 6,4 km/h (2 Bft) 100,00 %
27.03.2023 22:56 2,8 C 1,7 C -1,7 C 85 % 1025,9 hPa 0,0 l/m 0 min 0 min 0 W/m 6,4 km/h (2 Bft) 100,00 %
27.03.2023 22:58 2,8 C 1,7 C -1,7 C 85 % 1026,0 hPa 0,0 l/m 0 min 0 min 0 W/m 3,2 km/h (1 Bft) 97,83 %
27.03.2023 23:00 2,7 C 1,7 C -1,1 C 85 % 1025,9 hPa 0,0 l/m 0 min 0 min 0 W/m 3,2 km/h (1 Bft) 97,87 %
27.03.2023 23:02 2,7 C 1,7 C -1,1 C 85 % 1025,9 hPa 0,0 l/m 0 min 0 min 0 W/m 3,2 km/h (1 Bft) 100,00 %
27.03.2023 23:04 2,7 C 1,7 C -1,1 C 85 % 1025,9 hPa 0,0 l/m 0 min 0 min 0 W/m 6,4 km/h (2 Bft) 100,00 %
27.03.2023 23:06 2,7 C 1,7 C -1,7 C 85 % 1026,0 hPa 0,0 l/m 0 min 0 min 0 W/m 6,4 km/h (2 Bft) 98,00 %
27.03.2023 23:08 2,7 C 1,7 C -1,7 C 85 % 1025,9 hPa 0,0 l/m 0 min 0 min 0 W/m 6,4 km/h (2 Bft) 97,92 %
27.03.2023 23:10 2,6 C 1,7 C -1,7 C 85 % 1026,0 hPa 0,0 l/m 0 min 0 min 0 W/m 6,4 km/h (2 Bft) 100,00 %
27.03.2023 23:12 2,6 C 1,7 C -1,7 C 85 % 1026,0 hPa 0,0 l/m 0 min 0 min 0 W/m 3,2 km/h (1 Bft) 97,87 %
27.03.2023 23:14 2,6 C 1,7 C -1,7 C 85 % 1026,0 hPa 0,0 l/m 0 min 0 min 0 W/m 3,2 km/h (1 Bft) 97,87 %
27.03.2023 23:16 2,6 C 1,7 C -1,7 C 85 % 1026,1 hPa 0,0 l/m 0 min 0 min 0 W/m 3,2 km/h (1 Bft) 97,87 %
27.03.2023 23:18 2,6 C 1,7 C -1,7 C 85 % 1026,1 hPa 0,0 l/m 0 min 0 min 0 W/m 3,2 km/h (1 Bft) 97,87 %
27.03.2023 23:20 2,5 C 1,7 C -1,7 C 86 % 1026,1 hPa 0,0 l/m 0 min 0 min 0 W/m 3,2 km/h (1 Bft) 95,74 %
27.03.2023 23:22 2,5 C 1,7 C -1,7 C 86 % 1026,1 hPa 0,0 l/m 0 min 0 min 0 W/m 3,2 km/h (1 Bft) 97,87 %
27.03.2023 23:24 2,4 C 1,7 C -1,7 C 86 % 1026,1 hPa 0,0 l/m 0 min 0 min 0 W/m 3,2 km/h (1 Bft) 97,87 %
27.03.2023 23:26 2,4 C 1,7 C -1,7 C 86 % 1026,1 hPa 0,0 l/m 0 min 0 min 0 W/m 3,2 km/h (1 Bft) 95,65 %
27.03.2023 23:28 2,4 C 1,1 C -1,7 C 86 % 1026,1 hPa 0,0 l/m 0 min 0 min 0 W/m 3,2 km/h (1 Bft) 97,87 %
27.03.2023 23:30 2,4 C 1,1 C -1,7 C 86 % 1026,1 hPa 0,0 l/m 0 min 0 min 0 W/m 3,2 km/h (1 Bft) 97,87 %
27.03.2023 23:32 2,4 C 1,1 C -1,7 C 86 % 1026,1 hPa 0,0 l/m 0 min 0 min 0 W/m 3,2 km/h (1 Bft) 97,87 %
27.03.2023 23:34 2,3 C 1,1 C -2,2 C 86 % 1026,1 hPa 0,0 l/m 0 min 0 min 0 W/m 3,2 km/h (1 Bft) 93,75 %
27.03.2023 23:36 2,3 C 1,1 C -2,2 C 86 % 1026,1 hPa 0,0 l/m 0 min 0 min 0 W/m 3,2 km/h (1 Bft) 95,74 %
27.03.2023 23:38 2,3 C 1,1 C -2,2 C 86 % 1026,1 hPa 0,0 l/m 0 min 0 min 0 W/m 3,2 km/h (1 Bft) 100,00 %
27.03.2023 23:40 2,3 C 1,1 C -2,2 C 86 % 1026,1 hPa 0,0 l/m 0 min 0 min 0 W/m 3,2 km/h (1 Bft) 100,00 %
27.03.2023 23:42 2,2 C 1,1 C -2,2 C 86 % 1026,2 hPa 0,0 l/m 0 min 0 min 0 W/m 3,2 km/h (1 Bft) 95,74 %
27.03.2023 23:44 2,2 C 1,1 C -2,2 C 86 % 1026,1 hPa 0,0 l/m 0 min 0 min 0 W/m 6,4 km/h (2 Bft) 100,00 %
27.03.2023 23:46 2,2 C 1,1 C -1,7 C 87 % 1026,1 hPa 0,0 l/m 0 min 0 min 0 W/m 3,2 km/h (1 Bft) 100,00 %
27.03.2023 23:48 2,2 C 1,1 C -2,2 C 87 % 1026,2 hPa 0,0 l/m 0 min 0 min 0 W/m 3,2 km/h (1 Bft) 100,00 %
27.03.2023 23:50 2,2 C 1,1 C -1,7 C 87 % 1026,1 hPa 0,0 l/m 0 min 0 min 0 W/m 3,2 km/h (1 Bft) 100,00 %
27.03.2023 23:52 2,2 C 1,1 C -2,2 C 87 % 1026,2 hPa 0,0 l/m 0 min 0 min 0 W/m 3,2 km/h (1 Bft) 97,87 %
27.03.2023 23:54 2,1 C 1,1 C -2,2 C 87 % 1026,2 hPa 0,0 l/m 0 min 0 min 0 W/m 3,2 km/h (1 Bft) 97,87 %
27.03.2023 23:56 2,1 C 1,1 C -2,2 C 87 % 1026,2 hPa 0,0 l/m 0 min 0 min 0 W/m 3,2 km/h (1 Bft) 94,23 %
27.03.2023 23:58 2,1 C 1,1 C -2,2 C 87 % 1026,3 hPa 0,0 l/m 0 min 0 min 0 W/m 3,2 km/h (1 Bft) 97,87 %
_ Min-Zeit 05:46 05:30 04:38 15:40 00:00 - - - - 06:46 00:02
Minimum _ 1,1 C 0,0 C -2,2 C 63 % 1011,4 hPa - - - - 0,0 km/h (0 Bft) 14,29 %
_ Max-Zeit 15:38 14:02 12:28 07:58 23:58 08:42 18:12 13:14 12:32 15:58 00:08
Maximum _ 9,0 C 16,7 C 8,3 C 94 % 1026,3 hPa 0,2 l/m 4 min 2 min 884 W/m 48,3 km/h
NW (6 Bft)
255,36 %
Durchschnitt _ 4,3 C 4,6 C 0,6 C 83 % 1020,3 hPa #0,8 l/m #4:58 h #36 min. 245 W/m 13,0 km/h (3 Bft) 96,02 %
© 2023 W. Hausmann